M I D A S
Marine Information and Data Acquisition System
Tripno 1992 of the Zeeleeuw from 2010-12-13 08:06:46 to 2010-12-13 18:18:51
Back to CruiseResearch ActivitiesStationsMapUnderway DataData graphs

EquipmentUnitsComment
TimeDGPSUTC
LatitudeDGPSDM.mWGS84
LongitudeDGPSDM.mWGS84
TemperatureSBE03/SBE38deg celciusITS90
ConductivitySBE21S/mITS90
SalinitySBE21 Practical Salinity Units
ChlorophylAChelsea fluorimeterg/lCalibrated in Aceton
Missing or incorrect values are displayed as -999
Sea surface data collected by the RV Zeeleeuw from 2010-12-13 07:54:21 to 2010-12-13 18:30:19
                                                                                    Next 1000 lines
Time Latitude Longitude Temperature Conductivity Salinity ChlorophylA
2010-12-13 07:54:31 51°13.66 2°55.96 11.4763 0.073798 0.390578 -0.164791
2010-12-13 07:54:35 51°13.66 2°55.96 11.4667 0.073798 0.390584 -0.164791
2010-12-13 07:54:41 51°13.66 2°55.959 11.4023 0.073798 0.39059 -0.164791
2010-12-13 07:54:46 51°13.66 2°55.959 11.3863 0.073798 0.390602 -0.164791
2010-12-13 07:54:51 51°13.66 2°55.957 11.4159 0.073798 0.390602 -0.164791
2010-12-13 07:54:56 51°13.661 2°55.955 11.3758 0.073798 0.390566 -0.164791
2010-12-13 07:55:01 51°13.662 2°55.951 11.4171 0.073798 0.390427 -0.129967
2010-12-13 07:55:06 51°13.663 2°55.947 11.4555 0.073798 0.390373 -0.129967
2010-12-13 07:55:11 51°13.664 2°55.941 11.427 0.073798 0.390409 -0.129967
2010-12-13 07:55:17 51°13.666 2°55.935 11.4269 0.073798 0.390488 -0.164791
2010-12-13 07:55:23 51°13.668 2°55.927 11.4638 0.073798 0.390488 -0.164791
2010-12-13 07:55:29 51°13.669 2°55.918 11.4614 0.073798 0.390674 -0.199615
2010-12-13 07:55:35 51°13.671 2°55.909 11.4564 0.073798 0.390837 -0.129967
2010-12-13 07:55:40 51°13.673 2°55.901 11.4607 0.073798 0.390909 -0.164791
2010-12-13 07:55:45 51°13.675 2°55.892 11.4455 0.073798 0.390891 -0.164791
2010-12-13 07:55:50 51°13.677 2°55.884 11.4786 0.073798 0.390837 -0.129967
2010-12-13 07:55:55 51°13.679 2°55.875 11.4601 0.073798 0.390837 -0.129967
2010-12-13 07:56:00 51°13.68 2°55.866 11.4711 0.073798 0.390734 -0.164791
2010-12-13 07:56:05 51°13.682 2°55.857 11.4684 0.073798 0.39062 -0.164791
2010-12-13 07:56:10 51°13.684 2°55.849 11.4698 0.073798 0.390542 -0.129967
2010-12-13 07:56:15 51°13.685 2°55.84 11.4715 0.073798 0.390512 -0.164791
2010-12-13 07:56:20 51°13.687 2°55.832 11.4731 0.073798 0.390506 -0.164791
2010-12-13 07:56:25 51°13.688 2°55.824 11.4742 0.073798 0.390506 -0.164791
2010-12-13 07:56:30 51°13.689 2°55.816 11.4599 0.073798 0.390524 -0.129967
2010-12-13 07:56:35 51°13.691 2°55.808 11.4652 0.073798 0.390542 -0.164791
2010-12-13 07:56:40 51°13.692 2°55.8 11.4692 0.073798 0.390584 -0.164791
2010-12-13 07:56:45 51°13.693 2°55.792 11.472 0.073798 0.390602 -0.164791
2010-12-13 07:56:50 51°13.694 2°55.784 11.4732 0.073798 0.390596 -0.199615
2010-12-13 07:56:55 51°13.694 2°55.776 11.4743 0.073798 0.390596 -0.199615
2010-12-13 07:57:00 51°13.695 2°55.769 11.4725 0.073798 0.390572 -0.164791
2010-12-13 07:57:05 51°13.695 2°55.762 11.4712 0.073798 0.390542 -0.199615
2010-12-13 07:57:10 51°13.696 2°55.755 11.4717 0.073798 0.390524 -0.164791
2010-12-13 07:57:15 51°13.696 2°55.749 11.4684 0.073798 0.390524 -0.164791
2010-12-13 07:57:19 51°13.696 2°55.746 11.4827 0.073798 0.39053 -0.164791
2010-12-13 07:57:24 51°13.696 2°55.743 11.5021 0.073798 0.39053 -0.164791
2010-12-13 07:57:30 51°13.696 2°55.74 11.5025 0.073798 0.390554 -0.164791
2010-12-13 07:57:35 51°13.697 2°55.74 11.4899 0.073798 0.390596 -0.164791
2010-12-13 07:57:39 51°13.697 2°55.739 11.4901 0.073798 0.390626 -0.164791
2010-12-13 07:57:44 51°13.698 2°55.739 11.4869 0.073798 0.390644 -0.199615
2010-12-13 07:57:49 51°13.698 2°55.739 11.5054 0.073798 0.39065 -0.164791
2010-12-13 07:57:54 51°13.699 2°55.739 11.508 0.073798 0.39065 -0.164791
2010-12-13 07:57:59 51°13.7 2°55.74 11.4985 0.073798 0.390644 -0.164791
2010-12-13 07:58:03 51°13.701 2°55.741 11.4966 0.073798 0.390644 -0.164791
2010-12-13 07:58:08 51°13.702 2°55.742 11.4969 0.073798 0.390638 -0.164791
2010-12-13 07:58:14 51°13.704 2°55.743 11.4903 0.073798 0.390638 -0.129967
2010-12-13 07:58:19 51°13.705 2°55.744 11.4767 0.073798 0.39065 -0.129967
2010-12-13 07:58:23 51°13.706 2°55.745 11.3916 0.073798 0.39065 -0.129967
2010-12-13 07:58:28 51°13.707 2°55.745 11.4404 0.073798 0.390662 -0.164791
2010-12-13 07:58:33 51°13.707 2°55.745 11.4558 0.073798 0.390668 -0.164791
2010-12-13 07:58:38 51°13.706 2°55.745 11.4473 0.073798 0.390686 -0.164791
2010-12-13 07:58:43 51°13.706 2°55.744 11.3955 0.073798 0.390692 -0.129967
2010-12-13 07:58:48 51°13.705 2°55.743 11.4653 0.073798 0.390698 -0.129967
2010-12-13 07:58:53 51°13.704 2°55.741 11.4684 0.073798 0.390698 -0.129967
2010-12-13 07:58:58 51°13.702 2°55.74 11.4947 0.073798 0.390698 -0.129967
2010-12-13 07:59:03 51°13.7 2°55.738 11.4836 0.073798 0.390704 -0.164791
2010-12-13 07:59:08 51°13.698 2°55.737 11.4824 0.073798 0.39071 -0.129967
2010-12-13 07:59:14 51°13.696 2°55.735 11.4946 0.073693 0.390141 -0.164791
2010-12-13 07:59:19 51°13.695 2°55.734 11.5203 0.073693 0.390153 -0.129967
2010-12-13 07:59:25 51°13.695 2°55.733 11.5335 0.073693 0.390153 -0.129967
2010-12-13 07:59:30 51°13.697 2°55.733 11.5269 0.073798 0.390728 -0.164791
2010-12-13 07:59:35 51°13.699 2°55.732 11.5238 0.073693 0.390165 -0.164791
2010-12-13 07:59:39 51°13.702 2°55.731 11.5214 0.073693 0.390195 -0.164791
2010-12-13 07:59:44 51°13.707 2°55.73 11.5208 0.073798 0.390506 -0.199615
2010-12-13 07:59:50 51°13.713 2°55.727 11.5148 0.073798 0.390355 -0.164791
2010-12-13 07:59:55 51°13.719 2°55.724 11.5031 0.073798 0.390355 -0.164791
2010-12-13 07:59:59 51°13.724 2°55.721 11.482 0.073693 0.389871 -0.164791
2010-12-13 08:00:04 51°13.731 2°55.717 11.4365 0.073693 0.390015 -0.164791
2010-12-13 08:00:09 51°13.739 2°55.713 11.4377 0.073798 0.390801 -0.164791
2010-12-13 08:00:14 51°13.748 2°55.708 11.4077 0.073798 0.391036 -0.129967
2010-12-13 08:00:19 51°13.757 2°55.703 11.3973 0.073798 0.391181 -0.164791
2010-12-13 08:00:24 51°13.767 2°55.696 11.3817 0.073798 0.391181 -0.164791
2010-12-13 08:00:29 51°13.777 2°55.689 11.3662 0.073693 0.390647 -0.129967
2010-12-13 08:00:34 51°13.787 2°55.681 11.3752 0.073798 0.391163 -0.164791
2010-12-13 08:00:39 51°13.797 2°55.673 11.3582 0.073798 0.391024 -0.164791
2010-12-13 08:00:43 51°13.806 2°55.666 11.3545 0.073798 0.390861 -0.164791
2010-12-13 08:00:48 51°13.816 2°55.657 11.3462 0.073798 0.390734 -0.164791
2010-12-13 08:00:53 51°13.827 2°55.648 11.3404 0.073798 0.390734 -0.164791
2010-12-13 08:00:59 51°13.84 2°55.636 11.2714 0.073798 0.39065 -0.129967
2010-12-13 08:01:03 51°13.85 2°55.628 11.2437 0.073693 0.390069 -0.164791
2010-12-13 08:01:08 51°13.861 2°55.619 11.29 0.073693 0.390075 -0.164791
2010-12-13 08:01:13 51°13.873 2°55.608 11.2608 0.073693 0.390129 -0.129967
2010-12-13 08:01:18 51°13.885 2°55.598 11.2235 0.073693 0.390195 -0.164791
2010-12-13 08:01:23 51°13.897 2°55.587 11.2458 0.073693 0.390195 -0.164791
2010-12-13 08:01:28 51°13.91 2°55.578 11.2821 0.073693 0.390238 -0.164791
2010-12-13 08:01:33 51°13.922 2°55.568 11.2711 0.073693 0.390262 -0.129967
2010-12-13 08:01:38 51°13.935 2°55.558 11.3155 0.073693 0.390274 -0.164791
2010-12-13 08:01:43 51°13.948 2°55.548 11.3131 0.073693 0.390256 -0.129967
2010-12-13 08:01:47 51°13.958 2°55.541 11.3512 0.073693 0.390238 -0.129967
2010-12-13 08:01:52 51°13.971 2°55.531 11.3441 0.073693 0.390238 -0.129967
2010-12-13 08:01:57 51°13.984 2°55.522 11.4059 0.073693 0.390238 -0.129967
2010-12-13 08:02:02 51°13.997 2°55.512 11.3654 0.073798 0.390813 -0.164791
2010-12-13 08:02:07 51°14.01 2°55.503 11.3925 0.073693 0.39028 -0.129967
2010-12-13 08:02:13 51°14.025 2°55.491 11.3522 0.073693 0.39031 -0.129967
2010-12-13 08:02:18 51°14.038 2°55.482 11.3804 0.073693 0.390358 -0.164791
2010-12-13 08:02:23 51°14.051 2°55.472 11.3784 0.073693 0.390358 -0.164791
2010-12-13 08:02:29 51°14.067 2°55.461 11.3884 0.073693 0.390388 -0.164791
2010-12-13 08:02:35 51°14.083 2°55.449 11.3996 0.073693 0.390412 -0.164791
2010-12-13 08:02:39 51°14.093 2°55.441 11.4087 0.073693 0.390424 -0.164791
2010-12-13 08:02:44 51°14.106 2°55.431 11.4085 0.073693 0.390424 -0.164791
2010-12-13 08:02:50 51°14.121 2°55.419 11.3771 0.073693 0.390412 -0.164791
2010-12-13 08:02:55 51°14.134 2°55.41 11.3939 0.073693 0.390412 -0.164791
2010-12-13 08:03:00 51°14.147 2°55.4 11.3794 0.073693 0.3904 -0.199615
2010-12-13 08:03:05 51°14.16 2°55.391 11.3618 0.073693 0.390394 -0.129967
2010-12-13 08:03:10 51°14.173 2°55.381 11.3359 0.073693 0.390394 -0.129967
2010-12-13 08:03:15 51°14.186 2°55.371 11.4124 0.073693 0.390406 -0.164791
2010-12-13 08:03:19 51°14.196 2°55.364 11.3539 0.073693 0.390424 -0.199615
2010-12-13 08:03:25 51°14.212 2°55.352 11.3784 0.073693 0.390424 -0.199615
2010-12-13 08:03:30 51°14.225 2°55.343 11.4127 0.073693 0.390448 -0.129967
2010-12-13 08:03:35 51°14.238 2°55.333 11.3969 0.073693 0.390466 -0.164791
2010-12-13 08:03:39 51°14.248 2°55.325 11.3569 0.073693 0.390478 -0.129967
2010-12-13 08:03:45 51°14.263 2°55.312 11.4122 0.073693 0.390496 -0.129967
2010-12-13 08:03:50 51°14.276 2°55.301 11.3176 0.073693 0.39049 -0.129967
2010-12-13 08:03:55 51°14.289 2°55.29 11.3312 0.073693 0.39049 -0.129967
2010-12-13 08:03:59 51°14.299 2°55.281 11.3495 0.073693 0.390496 -0.164791
2010-12-13 08:04:04 51°14.311 2°55.269 11.3202 0.073693 0.390496 -0.199615
2010-12-13 08:04:10 51°14.327 2°55.254 11.3203 0.073693 0.390502 -0.199615
2010-12-13 08:04:15 51°14.339 2°55.242 11.2856 0.073693 0.390502 -0.164791
2010-12-13 08:04:19 51°14.349 2°55.232 11.2883 0.073693 0.390515 -0.164791
2010-12-13 08:04:25 51°14.364 2°55.217 11.206 0.073693 0.390515 -0.164791
2010-12-13 08:04:29 51°14.375 2°55.207 11.2806 0.073693 0.390527 -0.164791
2010-12-13 08:04:35 51°14.39 2°55.192 11.2741 0.073693 0.390527 -0.164791
2010-12-13 08:04:39 51°14.4 2°55.182 11.2808 0.073693 0.390539 -0.129967
2010-12-13 08:04:44 51°14.413 2°55.169 11.2918 0.073693 0.390545 -0.129967
2010-12-13 08:04:49 51°14.425 2°55.157 11.2003 0.073693 0.390563 -0.164791
2010-12-13 08:04:55 51°14.44 2°55.141 11.2566 0.073693 0.390563 -0.164791
2010-12-13 08:04:59 51°14.45 2°55.131 11.2791 0.073693 0.390575 -0.164791
2010-12-13 08:05:04 51°14.462 2°55.117 11.259 0.073693 0.390581 -0.164791
2010-12-13 08:05:09 51°14.474 2°55.103 11.2487 0.073693 0.390593 -0.164791
2010-12-13 08:05:14 51°14.486 2°55.09 11.2666 0.073693 0.390605 -0.164791
2010-12-13 08:05:19 51°14.498 2°55.076 11.273 0.073693 0.390617 -0.129967
2010-12-13 08:05:24 51°14.51 2°55.062 11.2178 0.073693 0.390617 -0.129967
2010-12-13 08:05:29 51°14.522 2°55.048 11.1885 0.073693 0.390611 -0.164791
2010-12-13 08:05:34 51°14.534 2°55.033 11.2507 0.073693 0.390629 -0.164791
2010-12-13 08:05:39 51°14.546 2°55.018 11.1981 0.073693 0.390647 -0.164791
2010-12-13 08:05:43 51°14.555 2°55.006 11.1884 0.073693 0.390653 -0.164791
2010-12-13 08:05:48 51°14.566 2°54.99 11.2138 0.073693 0.390683 -0.164791
2010-12-13 08:05:53 51°14.577 2°54.974 11.1195 0.073693 0.390683 -0.164791
2010-12-13 08:05:58 51°14.588 2°54.958 11.1983 0.073693 0.390701 -0.164791
2010-12-13 08:06:03 51°14.6 2°54.942 11.1964 0.073693 0.390714 -0.199615
2010-12-13 08:06:08 51°14.612 2°54.928 11.151 0.073693 0.39072 -0.199615
2010-12-13 08:06:13 51°14.624 2°54.913 11.1718 0.073693 0.39072 -0.129967
2010-12-13 08:06:18 51°14.637 2°54.901 11.0593 0.073693 0.390683 -0.164791
2010-12-13 08:06:23 51°14.65 2°54.892 11.0953 0.073693 0.390683 -0.164791
2010-12-13 08:06:28 51°14.664 2°54.885 11.1664 0.073693 0.390689 -0.164791
2010-12-13 08:06:33 51°14.678 2°54.88 11.1663 0.073693 0.390671 -0.164791
2010-12-13 08:06:38 51°14.692 2°54.875 11.1642 0.073693 0.390695 -0.164791
2010-12-13 08:06:43 51°14.705 2°54.871 11.1273 0.073693 0.390726 -0.199615
2010-12-13 08:06:47 51°14.716 2°54.868 11.161 0.073693 0.390762 -0.164791
2010-12-13 08:06:52 51°14.729 2°54.865 11.1831 0.073693 0.390762 -0.164791
2010-12-13 08:06:57 51°14.742 2°54.863 11.1857 0.073693 0.390786 -0.164791
2010-12-13 08:07:02 51°14.754 2°54.861 11.2003 0.073693 0.39081 -0.199615
2010-12-13 08:07:07 51°14.767 2°54.86 11.1677 0.073693 0.390828 -0.199615
2010-12-13 08:07:12 51°14.78 2°54.859 11.1306 0.073693 0.390816 -0.129967
2010-12-13 08:07:17 51°14.793 2°54.858 11.1412 0.073693 0.390816 -0.164791
2010-12-13 08:07:22 51°14.805 2°54.858 11.1572 0.073693 0.390816 -0.164791
2010-12-13 08:07:27 51°14.819 2°54.858 11.1604 0.073693 0.390804 -0.129967
2010-12-13 08:07:31 51°14.829 2°54.857 11.0984 0.073693 0.390816 -0.129967
2010-12-13 08:07:37 51°14.846 2°54.857 11.0753 0.073693 0.390828 -0.199615
2010-12-13 08:07:42 51°14.859 2°54.857 11.0747 0.073693 0.390834 -0.095143
2010-12-13 08:07:47 51°14.873 2°54.857 11.1248 0.073693 0.390895 -0.164791
2010-12-13 08:07:51 51°14.883 2°54.857 11.1412 0.073693 0.390895 -0.164791
2010-12-13 08:07:56 51°14.896 2°54.857 11.1228 0.073693 0.390889 -0.164791
2010-12-13 08:08:01 51°14.908 2°54.857 11.1363 0.073693 0.390919 -0.129967
2010-12-13 08:08:06 51°14.92 2°54.857 11.1084 0.073693 0.390937 -0.164791
2010-12-13 08:08:11 51°14.932 2°54.856 11.1583 0.073693 0.390943 -0.164791
2010-12-13 08:08:16 51°14.943 2°54.857 11.1313 0.073693 0.390925 -0.164791
2010-12-13 08:08:21 51°14.954 2°54.856 11.1487 0.073693 0.390925 -0.164791
2010-12-13 08:08:26 51°14.965 2°54.856 11.1498 0.073693 0.390943 -0.164791
2010-12-13 08:08:31 51°14.976 2°54.856 11.1595 0.073693 0.390949 -0.164791
2010-12-13 08:08:35 51°14.985 2°54.854 11.0966 0.073693 0.390967 -0.164791
2010-12-13 08:08:41 51°14.997 2°54.851 11.096 0.073693 0.390997 -0.164791
2010-12-13 08:08:46 51°15.006 2°54.847 11.1319 0.073693 0.391034 -0.129967
2010-12-13 08:08:51 51°15.015 2°54.843 11.1329 0.073693 0.391034 -0.129967
2010-12-13 08:08:56 51°15.023 2°54.837 11.1103 0.073693 0.391046 -0.129967
2010-12-13 08:09:01 51°15.031 2°54.831 11.1048 0.073693 0.391058 -0.129967
2010-12-13 08:09:06 51°15.039 2°54.825 11.0966 0.073693 0.391064 -0.129967
2010-12-13 08:09:11 51°15.046 2°54.818 11.1157 0.073589 0.390512 -0.164791
2010-12-13 08:09:15 51°15.052 2°54.812 11.1333 0.073693 0.391076 -0.164791
2010-12-13 08:09:21 51°15.06 2°54.803 11.1272 0.073693 0.391076 -0.164791
2010-12-13 08:09:26 51°15.067 2°54.796 11.0828 0.073693 0.39107 -0.129967
2010-12-13 08:09:31 51°15.073 2°54.788 11.1105 0.073693 0.391088 -0.129967
2010-12-13 08:09:36 51°15.079 2°54.78 11.0819 0.073693 0.391076 -0.164791
2010-12-13 08:09:41 51°15.085 2°54.772 11.0889 0.073589 0.39053 -0.164791
2010-12-13 08:09:46 51°15.091 2°54.764 11.0731 0.073589 0.390554 -0.199615
2010-12-13 08:09:51 51°15.097 2°54.756 11.0846 0.073589 0.390554 -0.199615
2010-12-13 08:09:56 51°15.103 2°54.748 11.1129 0.073693 0.391124 -0.164791
2010-12-13 08:10:01 51°15.108 2°54.74 11.0935 0.073589 0.39056 -0.199615
2010-12-13 08:10:06 51°15.114 2°54.731 11.1011 0.073589 0.390554 -0.129967
2010-12-13 08:10:11 51°15.12 2°54.723 11.1059 0.073589 0.390566 -0.129967
2010-12-13 08:10:16 51°15.126 2°54.715 11.0846 0.073589 0.390572 -0.164791
2010-12-13 08:10:21 51°15.131 2°54.707 11.1238 0.073589 0.390572 -0.164791
2010-12-13 08:10:26 51°15.137 2°54.699 11.084 0.073589 0.390566 -0.164791
2010-12-13 08:10:31 51°15.142 2°54.691 11.1224 0.073589 0.390572 -0.129967
2010-12-13 08:10:36 51°15.148 2°54.683 11.121 0.073589 0.39059 -0.129967
2010-12-13 08:10:41 51°15.153 2°54.674 11.1203 0.073589 0.39062 -0.164791
2010-12-13 08:10:46 51°15.157 2°54.665 11.1153 0.073589 0.390663 -0.129967
2010-12-13 08:10:51 51°15.162 2°54.655 11.1249 0.073589 0.390663 -0.129967
2010-12-13 08:10:56 51°15.165 2°54.645 11.1211 0.073589 0.390675 -0.129967
2010-12-13 08:11:01 51°15.169 2°54.636 11.1455 0.073589 0.390693 -0.164791
2010-12-13 08:11:06 51°15.172 2°54.625 11.1251 0.073589 0.390693 -0.164791
2010-12-13 08:11:11 51°15.175 2°54.615 11.1157 0.073589 0.390693 -0.164791
2010-12-13 08:11:16 51°15.177 2°54.605 11.114 0.073589 0.390711 -0.164791
2010-12-13 08:11:21 51°15.18 2°54.594 11.1266 0.073589 0.390711 -0.164791
2010-12-13 08:11:26 51°15.182 2°54.583 11.1216 0.073589 0.390717 -0.199615
2010-12-13 08:11:31 51°15.183 2°54.572 11.1409 0.073589 0.390729 -0.199615
2010-12-13 08:11:36 51°15.185 2°54.561 11.1307 0.073589 0.390723 -0.164791
2010-12-13 08:11:41 51°15.186 2°54.55 11.1378 0.073589 0.390741 -0.129967
2010-12-13 08:11:46 51°15.188 2°54.538 11.0906 0.073589 0.390735 -0.164791
2010-12-13 08:11:51 51°15.189 2°54.526 11.1282 0.073589 0.390735 -0.164791
2010-12-13 08:11:56 51°15.19 2°54.513 11.1312 0.073589 0.390747 -0.129967
2010-12-13 08:12:01 51°15.191 2°54.5 11.1245 0.073589 0.390747 -0.164791
2010-12-13 08:12:06 51°15.192 2°54.486 11.1243 0.073589 0.390753 -0.164791
2010-12-13 08:12:11 51°15.192 2°54.473 11.1412 0.073589 0.390759 -0.129967
2010-12-13 08:12:16 51°15.193 2°54.458 11.1428 0.073589 0.390765 -0.129967
2010-12-13 08:12:21 51°15.194 2°54.444 11.132 0.073589 0.390765 -0.129967
2010-12-13 08:12:26 51°15.194 2°54.429 11.0905 0.073589 0.390771 -0.164791
2010-12-13 08:12:31 51°15.194 2°54.414 11.1304 0.073589 0.390796 -0.129967
2010-12-13 08:12:36 51°15.195 2°54.398 11.128 0.073589 0.39079 -0.164791
2010-12-13 08:12:41 51°15.195 2°54.383 11.1451 0.073589 0.390808 -0.164791
2010-12-13 08:12:46 51°15.195 2°54.367 11.1333 0.073589 0.39082 -0.129967
2010-12-13 08:12:51 51°15.193 2°54.352 11.1394 0.073589 0.39082 -0.129967
2010-12-13 08:12:56 51°15.191 2°54.337 11.1521 0.073589 0.390844 -0.164791
2010-12-13 08:13:01 51°15.189 2°54.321 11.1631 0.073589 0.390868 -0.129967
2010-12-13 08:13:06 51°15.185 2°54.307 11.129 0.073589 0.390899 -0.164791
2010-12-13 08:13:11 51°15.181 2°54.293 11.1405 0.073589 0.390911 -0.164791
2010-12-13 08:13:16 51°15.176 2°54.279 11.1287 0.073589 0.390905 -0.164791
2010-12-13 08:13:21 51°15.171 2°54.266 11.1519 0.073589 0.390905 -0.164791
2010-12-13 08:13:26 51°15.165 2°54.253 11.1476 0.073589 0.390886 -0.129967
2010-12-13 08:13:31 51°15.16 2°54.239 11.1205 0.073589 0.390899 -0.129967
2010-12-13 08:13:36 51°15.153 2°54.227 11.1211 0.073589 0.390905 -0.164791
2010-12-13 08:13:41 51°15.147 2°54.214 11.1464 0.073589 0.390899 -0.164791
2010-12-13 08:13:46 51°15.141 2°54.201 11.1393 0.073589 0.390911 -0.164791
2010-12-13 08:13:51 51°15.134 2°54.189 11.1296 0.073589 0.390911 -0.164791
2010-12-13 08:13:56 51°15.127 2°54.176 11.1477 0.073589 0.390941 -0.164791
2010-12-13 08:14:01 51°15.12 2°54.164 11.1385 0.073589 0.390947 -0.164791
2010-12-13 08:14:06 51°15.113 2°54.151 11.1502 0.073589 0.390953 -0.164791
2010-12-13 08:14:11 51°15.106 2°54.139 11.1265 0.073589 0.390971 -0.129967
2010-12-13 08:14:16 51°15.099 2°54.126 11.1548 0.073589 0.390977 -0.164791
2010-12-13 08:14:21 51°15.092 2°54.114 11.1567 0.073589 0.390977 -0.164791
2010-12-13 08:14:26 51°15.084 2°54.101 11.1372 0.073589 0.390977 -0.164791
2010-12-13 08:14:31 51°15.077 2°54.089 11.1746 0.073589 0.390971 -0.129967
2010-12-13 08:14:36 51°15.069 2°54.077 11.181 0.073589 0.390977 -0.199615
2010-12-13 08:14:41 51°15.061 2°54.067 11.1281 0.073589 0.391001 -0.199615
2010-12-13 08:14:46 51°15.052 2°54.058 11.1892 0.073589 0.391044 -0.164791
2010-12-13 08:14:51 51°15.044 2°54.049 11.1438 0.073589 0.391044 -0.164791
2010-12-13 08:14:56 51°15.034 2°54.043 11.1707 0.073589 0.391038 -0.199615
2010-12-13 08:15:01 51°15.025 2°54.036 11.1277 0.073589 0.391074 -0.199615
2010-12-13 08:15:06 51°15.015 2°54.034 11.1586 0.073589 0.391074 -0.129967
2010-12-13 08:15:11 51°15.005 2°54.029 11.155 0.073589 0.391074 -0.164791
2010-12-13 08:15:16 51°14.996 2°54.026 11.1643 0.073589 0.391074 -0.129967
2010-12-13 08:15:21 51°14.986 2°54.024 11.1436 0.073589 0.391074 -0.129967
2010-12-13 08:15:26 51°14.975 2°54.022 11.1607 0.073589 0.391086 -0.164791
2010-12-13 08:15:31 51°14.966 2°54.021 11.126 0.073589 0.39105 -0.164791
2010-12-13 08:15:36 51°14.956 2°54.02 11.1515 0.073589 0.39108 -0.164791
2010-12-13 08:15:41 51°14.945 2°54.019 11.1679 0.073589 0.39108 -0.164791
2010-12-13 08:15:46 51°14.935 2°54.019 11.1542 0.073589 0.391086 -0.164791
2010-12-13 08:15:51 51°14.925 2°54.018 11.1507 0.073589 0.391086 -0.164791
2010-12-13 08:15:56 51°14.915 2°54.018 11.163 0.073589 0.391098 -0.199615
2010-12-13 08:16:01 51°14.905 2°54.017 11.1447 0.073589 0.391117 -0.164791
2010-12-13 08:16:06 51°14.894 2°54.018 11.1758 0.073589 0.391117 -0.164791
2010-12-13 08:16:11 51°14.884 2°54.017 11.158 0.073589 0.391117 -0.129967
2010-12-13 08:16:16 51°14.874 2°54.018 11.1802 0.073589 0.391135 -0.199615
2010-12-13 08:16:21 51°14.864 2°54.018 11.1748 0.073589 0.391135 -0.199615
2010-12-13 08:16:26 51°14.854 2°54.02 11.1942 0.073589 0.391129 -0.164791
2010-12-13 08:16:31 51°14.844 2°54.022 11.1651 0.073589 0.391147 -0.164791
2010-12-13 08:16:36 51°14.834 2°54.027 11.1937 0.073589 0.391183 -0.164791
2010-12-13 08:16:41 51°14.825 2°54.031 11.1839 0.073589 0.391177 -0.164791
2010-12-13 08:16:46 51°14.816 2°54.038 11.1804 0.073589 0.391201 -0.164791
2010-12-13 08:16:51 51°14.808 2°54.045 11.1633 0.073589 0.391201 -0.164791
2010-12-13 08:16:56 51°14.799 2°54.053 11.187 0.073485 0.390642 -0.164791
2010-12-13 08:17:01 51°14.791 2°54.061 11.1538 0.073589 0.391207 -0.164791
2010-12-13 08:17:06 51°14.784 2°54.07 11.1938 0.073589 0.391214 -0.129967
2010-12-13 08:17:11 51°14.776 2°54.078 11.156 0.073589 0.391201 -0.164791
2010-12-13 08:17:16 51°14.769 2°54.089 11.1839 0.073485 0.390654 -0.164791
2010-12-13 08:17:21 51°14.762 2°54.098 11.18 0.073485 0.390654 -0.164791
2010-12-13 08:17:26 51°14.755 2°54.108 11.1631 0.073589 0.391226 -0.129967
2010-12-13 08:17:31 51°14.748 2°54.118 11.1595 0.073485 0.390672 -0.164791
2010-12-13 08:17:36 51°14.741 2°54.128 11.1788 0.073485 0.390679 -0.129967
2010-12-13 08:17:41 51°14.735 2°54.139 11.1883 0.073485 0.390685 -0.164791
2010-12-13 08:17:46 51°14.727 2°54.149 11.1751 0.073485 0.390703 -0.129967
2010-12-13 08:17:51 51°14.721 2°54.16 11.2107 0.073485 0.390703 -0.129967
2010-12-13 08:17:56 51°14.715 2°54.17 11.2 0.073485 0.390691 -0.164791
2010-12-13 08:18:01 51°14.71 2°54.182 11.1906 0.073485 0.390697 -0.164791
2010-12-13 08:18:06 51°14.706 2°54.195 11.2151 0.073485 0.390721 -0.129967
2010-12-13 08:18:11 51°14.703 2°54.207 11.1971 0.073485 0.390757 -0.164791
2010-12-13 08:18:16 51°14.7 2°54.22 11.1836 0.073485 0.390751 -0.164791
2010-12-13 08:18:21 51°14.698 2°54.234 11.1874 0.073485 0.390751 -0.164791
2010-12-13 08:18:26 51°14.696 2°54.247 11.1877 0.073485 0.390769 -0.164791
2010-12-13 08:18:31 51°14.696 2°54.261 11.1983 0.073485 0.390757 -0.129967
2010-12-13 08:18:36 51°14.694 2°54.275 11.1612 0.073485 0.390757 -0.129967
2010-12-13 08:18:41 51°14.694 2°54.288 11.2009 0.073485 0.390769 -0.164791
2010-12-13 08:18:46 51°14.693 2°54.303 11.1658 0.073485 0.390775 -0.164791
2010-12-13 08:18:51 51°14.694 2°54.317 11.1953 0.073485 0.390775 -0.164791
2010-12-13 08:18:56 51°14.693 2°54.332 11.1618 0.073485 0.390775 -0.164791
2010-12-13 08:19:01 51°14.694 2°54.346 11.1912 0.073485 0.390806 -0.164791
2010-12-13 08:19:06 51°14.693 2°54.36 11.1597 0.073485 0.390806 -0.129967
2010-12-13 08:19:11 51°14.695 2°54.375 11.2007 0.073485 0.390842 -0.164791
2010-12-13 08:19:16 51°14.694 2°54.39 11.1931 0.073485 0.390836 -0.164791
2010-12-13 08:19:21 51°14.696 2°54.404 11.1999 0.073485 0.390836 -0.164791
2010-12-13 08:19:26 51°14.697 2°54.418 11.1974 0.073485 0.390854 -0.164791
2010-12-13 08:19:31 51°14.7 2°54.432 11.2 0.073485 0.390866 -0.164791
2010-12-13 08:19:36 51°14.703 2°54.446 11.1914 0.073485 0.390878 -0.164791
2010-12-13 08:19:41 51°14.707 2°54.458 11.1942 0.073485 0.390878 -0.129967
2010-12-13 08:19:46 51°14.711 2°54.471 11.2028 0.073485 0.390891 -0.164791
2010-12-13 08:19:51 51°14.716 2°54.483 11.1966 0.073485 0.390891 -0.164791
2010-12-13 08:19:56 51°14.721 2°54.494 11.2102 0.073485 0.390891 -0.129967
2010-12-13 08:20:01 51°14.727 2°54.505 11.1836 0.073485 0.390891 -0.129967
2010-12-13 08:20:06 51°14.733 2°54.516 11.212 0.073485 0.390903 -0.164791
2010-12-13 08:20:11 51°14.738 2°54.527 11.1953 0.073485 0.390891 -0.129967
2010-12-13 08:20:16 51°14.745 2°54.537 11.2043 0.073485 0.390909 -0.129967
2010-12-13 08:20:21 51°14.75 2°54.548 11.1953 0.073485 0.390909 -0.129967
2010-12-13 08:20:26 51°14.757 2°54.558 11.2044 0.073485 0.390927 -0.164791
2010-12-13 08:20:31 51°14.763 2°54.569 11.1952 0.073485 0.390933 -0.164791
2010-12-13 08:20:36 51°14.77 2°54.579 11.1993 0.073485 0.390951 -0.129967
2010-12-13 08:20:41 51°14.777 2°54.589 11.2039 0.073485 0.390957 -0.164791
2010-12-13 08:20:46 51°14.784 2°54.599 11.2091 0.073485 0.390969 -0.164791
2010-12-13 08:20:51 51°14.791 2°54.609 11.2002 0.073485 0.390969 -0.164791
2010-12-13 08:20:56 51°14.798 2°54.619 11.1936 0.073485 0.390963 -0.164791
2010-12-13 08:21:01 51°14.805 2°54.629 11.195 0.073485 0.390976 -0.199615
2010-12-13 08:21:06 51°14.812 2°54.639 11.2167 0.073485 0.390982 -0.199615
2010-12-13 08:21:11 51°14.819 2°54.649 11.2031 0.073485 0.390988 -0.164791
2010-12-13 08:21:16 51°14.826 2°54.659 11.2084 0.073485 0.391 -0.164791
2010-12-13 08:21:21 51°14.834 2°54.667 11.2181 0.073485 0.391 -0.164791
2010-12-13 08:21:26 51°14.841 2°54.676 11.2154 0.073485 0.391024 -0.164791
2010-12-13 08:21:31 51°14.85 2°54.683 11.2161 0.073485 0.391054 -0.164791
2010-12-13 08:21:36 51°14.858 2°54.689 11.2065 0.073485 0.391067 -0.199615
2010-12-13 08:21:41 51°14.866 2°54.695 11.2216 0.073485 0.391079 -0.164791
2010-12-13 08:21:47 51°14.876 2°54.701 11.2233 0.073485 0.391079 -0.164791
2010-12-13 08:21:51 51°14.883 2°54.705 11.2289 0.073485 0.391079 -0.164791
2010-12-13 08:21:55 51°14.889 2°54.709 11.2275 0.073485 0.391079 -0.199615
2010-12-13 08:22:01 51°14.899 2°54.713 11.2202 0.073485 0.391079 -0.164791
2010-12-13 08:22:06 51°14.907 2°54.716 11.2282 0.073485 0.391091 -0.164791
2010-12-13 08:22:11 51°14.916 2°54.719 11.2377 0.073485 0.391085 -0.164791
2010-12-13 08:22:16 51°14.924 2°54.721 11.2257 0.073485 0.391103 -0.164791
2010-12-13 08:22:21 51°14.932 2°54.722 11.2237 0.073485 0.391103 -0.164791
2010-12-13 08:22:27 51°14.942 2°54.722 11.2268 0.073485 0.391133 -0.199615
2010-12-13 08:22:31 51°14.948 2°54.721 11.2214 0.073485 0.391139 -0.164791
2010-12-13 08:22:36 51°14.956 2°54.72 11.2214 0.073485 0.391145 -0.129967
2010-12-13 08:22:41 51°14.964 2°54.718 11.2248 0.073485 0.391158 -0.095143
2010-12-13 08:22:46 51°14.971 2°54.716 11.2074 0.073485 0.391145 -0.129967
2010-12-13 08:22:51 51°14.979 2°54.713 11.2259 0.073485 0.391145 -0.129967
2010-12-13 08:22:56 51°14.987 2°54.709 11.2266 0.073485 0.391139 -0.129967
2010-12-13 08:23:01 51°14.994 2°54.706 11.2076 0.073485 0.391145 -0.129967
2010-12-13 08:23:06 51°15.002 2°54.702 11.2124 0.073485 0.391158 -0.129967
2010-12-13 08:23:11 51°15.009 2°54.697 11.2014 0.073485 0.391164 -0.129967
2010-12-13 08:23:16 51°15.017 2°54.693 11.1966 0.073485 0.39117 -0.164791
2010-12-13 08:23:21 51°15.024 2°54.688 11.2087 0.073485 0.39117 -0.164791
2010-12-13 08:23:26 51°15.031 2°54.683 11.2183 0.073485 0.391188 -0.164791
2010-12-13 08:23:31 51°15.039 2°54.678 11.226 0.073485 0.391188 -0.164791
2010-12-13 08:23:36 51°15.046 2°54.674 11.2171 0.073485 0.391206 -0.129967
2010-12-13 08:23:41 51°15.054 2°54.669 11.2249 0.073485 0.3912 -0.164791
2010-12-13 08:23:46 51°15.061 2°54.665 11.2327 0.073485 0.391206 -0.164791
2010-12-13 08:23:51 51°15.069 2°54.66 11.2249 0.073485 0.391206 -0.164791
2010-12-13 08:23:56 51°15.076 2°54.657 11.2191 0.073485 0.391212 -0.129967
2010-12-13 08:24:01 51°15.084 2°54.653 11.2094 0.073485 0.391237 -0.164791
2010-12-13 08:24:06 51°15.092 2°54.65 11.2169 0.073485 0.391249 -0.164791
2010-12-13 08:24:11 51°15.1 2°54.646 11.2177 0.073485 0.391267 -0.164791
2010-12-13 08:24:16 51°15.108 2°54.644 11.2237 0.073485 0.391279 -0.164791
2010-12-13 08:24:21 51°15.116 2°54.641 11.2332 0.073485 0.391279 -0.164791
2010-12-13 08:24:26 51°15.123 2°54.638 11.2363 0.073485 0.391291 -0.164791
2010-12-13 08:24:31 51°15.131 2°54.636 11.2227 0.073485 0.39131 -0.129967
2010-12-13 08:24:36 51°15.139 2°54.634 11.2338 0.073381 0.390743 -0.199615
2010-12-13 08:24:41 51°15.147 2°54.631 11.22 0.073485 0.39131 -0.164791
2010-12-13 08:24:46 51°15.155 2°54.629 11.2217 0.073381 0.390755 -0.164791
2010-12-13 08:24:51 51°15.163 2°54.627 11.2319 0.073381 0.390755 -0.164791
2010-12-13 08:24:56 51°15.171 2°54.625 11.2259 0.073485 0.391328 -0.164791
2010-12-13 08:25:01 51°15.179 2°54.623 11.2397 0.073485 0.391328 -0.129967
2010-12-13 08:25:06 51°15.187 2°54.621 11.2294 0.073381 0.390774 -0.129967
2010-12-13 08:25:11 51°15.195 2°54.619 11.2328 0.073381 0.390786 -0.129967
2010-12-13 08:25:16 51°15.204 2°54.617 10.6775 0.073381 0.390804 -0.164791
2010-12-13 08:25:21 51°15.212 2°54.615 6.2013 0.073381 0.390804 -0.164791
2010-12-13 08:25:26 51°15.22 2°54.613 5.679 0.073485 0.391133 0.113802
2010-12-13 08:25:31 51°15.228 2°54.61 5.203 0.158114 0.878052 0.009329
2010-12-13 08:25:36 51°15.236 2°54.608 4.9361 0.200506 1.123786 -0.199615
2010-12-13 08:25:41 51°15.244 2°54.605 4.7954 0.757371 4.66925 0.35757
2010-12-13 08:25:46 51°15.252 2°54.603 4.5969 2.036921 15.359449 0.253098
2010-12-13 08:25:51 51°15.26 2°54.6 4.4981 2.036921 15.359449 0.253098
2010-12-13 08:25:56 51°15.269 2°54.597 4.4701 2.263619 17.732619 0.253098
2010-12-13 08:26:01 51°15.277 2°54.594 4.4077 2.356417 20.121991 0.35757
2010-12-13 08:26:06 51°15.285 2°54.592 4.3725 2.657305 24.349206 0.35757
2010-12-13 08:26:11 51°15.293 2°54.589 4.3818 2.936785 28.066468 0.392394
2010-12-13 08:26:16 51°15.301 2°54.586 4.3009 2.901719 28.354727 0.322746
2010-12-13 08:26:21 51°15.31 2°54.583 4.2964 2.901719 28.354727 0.322746
2010-12-13 08:26:26 51°15.318 2°54.581 4.2604 3.010746 30.061806 0.35757
2010-12-13 08:26:31 51°15.326 2°54.578 4.2514 2.982939 30.083885 0.35757
2010-12-13 08:26:36 51°15.334 2°54.575 4.2598 2.959663 30.154981 0.35757
2010-12-13 08:26:41 51°15.342 2°54.572 4.2545 2.929013 29.971785 0.35757
2010-12-13 08:26:46 51°15.35 2°54.569 4.2368 2.915322 29.926003 0.35757
2010-12-13 08:26:51 51°15.358 2°54.566 4.2196 2.915322 29.926003 0.35757
2010-12-13 08:26:56 51°15.365 2°54.563 4.2019 2.89015 29.721419 0.35757
2010-12-13 08:27:01 51°15.373 2°54.56 4.1797 2.895733 29.864974 0.35757
2010-12-13 08:27:06 51°15.381 2°54.557 4.1886 2.887729 29.866996 0.35757
2010-12-13 08:27:11 51°15.389 2°54.553 4.1846 2.880147 29.800233 0.35757
2010-12-13 08:27:16 51°15.397 2°54.55 4.1919 2.875618 29.803082 0.35757
2010-12-13 08:27:21 51°15.405 2°54.546 4.1583 2.875618 29.803082 0.35757
2010-12-13 08:27:26 51°15.413 2°54.542 4.1715 2.87288 29.79553 0.287922
2010-12-13 08:27:31 51°15.42 2°54.538 4.1807 2.87109 29.813104 0.322746
2010-12-13 08:27:36 51°15.428 2°54.535 4.162 2.868879 29.805235 0.322746
2010-12-13 08:27:41 51°15.437 2°54.531 4.1715 2.779262 28.816726 0.322746
2010-12-13 08:27:46 51°15.445 2°54.527 4.188 2.866036 29.818736 0.322746
2010-12-13 08:27:51 51°15.454 2°54.523 4.1579 2.866036 29.818736 0.322746
2010-12-13 08:27:56 51°15.464 2°54.519 4.1781 2.865193 29.819415 0.322746
2010-12-13 08:28:01 51°15.474 2°54.515 4.156 2.863614 29.814815 0.322746
2010-12-13 08:28:06 51°15.485 2°54.511 4.166 2.863509 29.831135 0.322746
2010-12-13 08:28:11 51°15.496 2°54.508 4.183 2.86214 29.821782 0.35757
2010-12-13 08:28:15 51°15.505 2°54.504 4.1758 2.861192 29.814876 0.35757
2010-12-13 08:28:21 51°15.519 2°54.5 4.1758 2.861192 29.814876 0.35757
2010-12-13 08:28:27 51°15.533 2°54.496 4.1541 2.859928 29.806729 0.35757
2010-12-13 08:28:31 51°15.543 2°54.493 4.1518 2.859507 29.808265 0.322746
2010-12-13 08:28:36 51°15.555 2°54.49 4.1558 2.857085 29.786795 0.322746
2010-12-13 08:28:41 51°15.568 2°54.487 4.1628 2.856242 29.786672 0.322746
2010-12-13 08:28:47 51°15.583 2°54.483 4.1725 2.855189 29.772171 0.322746
2010-12-13 08:28:51 51°15.593 2°54.48 4.1827 2.855189 29.772171 0.322746
2010-12-13 08:28:56 51°15.606 2°54.476 4.1819 2.853293 29.757542 0.322746
2010-12-13 08:29:01 51°15.618 2°54.469 4.1926 2.853399 29.76194 0.322746
2010-12-13 08:29:07 51°15.633 2°54.461 4.2033 2.854452 29.776444 0.322746
2010-12-13 08:29:11 51°15.642 2°54.455 4.2015 2.850661 29.741596 0.322746
2010-12-13 08:29:16 51°15.654 2°54.447 4.1971 2.853399 29.774694 0.322746
2010-12-13 08:29:21 51°15.666 2°54.438 4.1938 2.853399 29.774694 0.322746
2010-12-13 08:29:26 51°15.678 2°54.429 4.2025 2.850556 29.744368 0.322746
2010-12-13 08:29:31 51°15.69 2°54.419 4.1939 2.851398 29.754062 0.322746
2010-12-13 08:29:36 51°15.702 2°54.409 4.196 2.850977 29.748418 0.322746
2010-12-13 08:29:41 51°15.714 2°54.399 4.201 2.849292 29.72107 0.287922
2010-12-13 08:29:46 51°15.726 2°54.389 4.1993 2.849397 29.716711 0.287922
2010-12-13 08:29:51 51°15.738 2°54.378 4.2004 2.849397 29.716711 0.287922
2010-12-13 08:29:56 51°15.75 2°54.367 4.208 2.84866 29.714598 0.287922
2010-12-13 08:30:01 51°15.762 2°54.356 4.1917 2.84866 29.709825 0.287922
2010-12-13 08:30:06 51°15.774 2°54.345 4.1971 2.849292 29.7155 0.287922
2010-12-13 08:30:11 51°15.787 2°54.334 4.1841 2.847712 29.705288 0.287922
2010-12-13 08:30:16 51°15.8 2°54.325 4.1843 2.849292 29.719479 0.287922
2010-12-13 08:30:21 51°15.812 2°54.316 4.1757 2.849292 29.719479 0.287922
2010-12-13 08:30:26 51°15.825 2°54.308 4.1778 2.849502 29.724289 0.287922
2010-12-13 08:30:31 51°15.838 2°54.301 4.185 2.84866 29.714598 0.287922
2010-12-13 08:30:36 51°15.851 2°54.296 4.2184 2.849397 29.72069 0.253098
2010-12-13 08:30:41 51°15.865 2°54.291 4.2047 2.84866 29.713803 0.253098
2010-12-13 08:30:46 51°15.879 2°54.287 4.1931 2.848133 29.71252 0.218274
2010-12-13 08:30:51 51°15.893 2°54.284 4.1949 2.848133 29.71252 0.218274
2010-12-13 08:30:56 51°15.906 2°54.281 4.1823 2.847712 29.718818 0.253098
2010-12-13 08:31:01 51°15.92 2°54.279 4.1841 2.845501 29.694166 0.287922
2010-12-13 08:31:06 51°15.934 2°54.277 4.2005 2.847186 29.717536 0.287922
2010-12-13 08:31:11 51°15.948 2°54.276 4.1999 2.845922 29.699013 0.253098
2010-12-13 08:31:16 51°15.962 2°54.276 4.1888 2.845079 29.686933 0.287922
2010-12-13 08:31:21 51°15.976 2°54.275 4.1819 2.845079 29.686933 0.287922
2010-12-13 08:31:26 51°15.99 2°54.275 4.1732 2.844447 29.679664 0.253098
2010-12-13 08:31:31 51°16.005 2°54.275 4.181 2.84371 29.670388 0.287922
2010-12-13 08:31:36 51°16.019 2°54.274 4.1689 2.8435 29.676711 0.253098
2010-12-13 08:31:41 51°16.033 2°54.272 4.1772 2.844132 29.683186 0.253098
2010-12-13 08:31:46 51°16.047 2°54.271 4.1635 2.842552 29.665009 0.253098
2010-12-13 08:31:51 51°16.061 2°54.268 4.1627 2.842552 29.665009 0.253098
2010-12-13 08:31:56 51°16.075 2°54.265 4.1575 2.841499 29.655276 0.253098
2010-12-13 08:32:01 51°16.089 2°54.262 4.1567 2.841499 29.658456 0.287922
2010-12-13 08:32:06 51°16.104 2°54.259 4.1558 2.840972 29.657961 0.218274
2010-12-13 08:32:11 51°16.118 2°54.256 4.1638 2.842131 29.671294 0.218274
2010-12-13 08:32:16 51°16.132 2°54.253 4.1348 2.841604 29.671597 0.253098
2010-12-13 08:32:21 51°16.146 2°54.25 4.1295 2.841604 29.671597 0.253098
2010-12-13 08:32:26 51°16.159 2°54.248 4.1494 2.842131 29.678455 0.287922
2010-12-13 08:32:31 51°16.172 2°54.246 4.1265 2.840867 29.669475 0.253098
2010-12-13 08:32:36 51°16.184 2°54.244 4.1166 2.840551 29.673797 0.253098
2010-12-13 08:32:41 51°16.195 2°54.243 4.1243 2.841078 29.683843 0.218274
2010-12-13 08:32:46 51°16.206 2°54.242 4.1093 2.841604 29.689112 0.218274
2010-12-13 08:32:51 51°16.216 2°54.242 4.1028 2.841604 29.689112 0.218274
2010-12-13 08:32:56 51°16.226 2°54.243 4.0975 2.841078 29.690217 0.253098
2010-12-13 08:33:01 51°16.235 2°54.245 4.1081 2.84192 29.7071 0.287922
2010-12-13 08:33:06 51°16.243 2°54.248 4.1021 2.840867 29.699747 0.253098
2010-12-13 08:33:11 51°16.251 2°54.252 4.093 2.839814 29.69319 0.253098
2010-12-13 08:33:16 51°16.258 2°54.256 4.0783 2.840762 29.707307 0.218274
2010-12-13 08:33:21 51°16.264 2°54.261 4.0624 2.840762 29.707307 0.218274
2010-12-13 08:33:26 51°16.269 2°54.267 4.0687 2.840341 29.708834 0.253098
2010-12-13 08:33:31 51°16.275 2°54.273 4.0812 2.841078 29.723724 0.218274
2010-12-13 08:33:36 51°16.279 2°54.279 4.0533 2.840973 29.731298 0.253098
2010-12-13 08:33:41 51°16.283 2°54.285 4.0502 2.839288 29.713454 0.253098
2010-12-13 08:33:46 51°16.287 2°54.291 4.0454 2.840657 29.730849 0.253098
2010-12-13 08:33:51 51°16.29 2°54.297 4.0548 2.840657 29.730849 0.253098
2010-12-13 08:33:56 51°16.292 2°54.303 4.0455 2.83834 29.708908 0.218274
2010-12-13 08:34:01 51°16.295 2°54.309 4.0405 2.839815 29.735517 0.253098
2010-12-13 08:34:06 51°16.297 2°54.315 4.0423 2.840552 29.75283 0.218274
2010-12-13 08:34:11 51°16.299 2°54.321 4.0498 2.839815 29.748319 0.218274
2010-12-13 08:34:16 51°16.301 2°54.327 4.0506 2.839183 29.749027 0.253098
2010-12-13 08:34:21 51°16.302 2°54.332 4.0501 2.839183 29.749027 0.253098
2010-12-13 08:34:26 51°16.303 2°54.337 4.0576 2.840552 29.772857 0.218274
2010-12-13 08:34:31 51°16.305 2°54.341 4.0494 2.838657 29.753356 0.253098
2010-12-13 08:34:36 51°16.306 2°54.345 4.0534 2.839289 29.764665 0.218274
2010-12-13 08:34:41 51°16.307 2°54.349 4.0497 2.840342 29.782452 0.253098
2010-12-13 08:34:46 51°16.308 2°54.352 4.0436 2.83971 29.779158 0.253098
2010-12-13 08:34:51 51°16.309 2°54.355 4.0439 2.83971 29.779158 0.253098
2010-12-13 08:34:56 51°16.31 2°54.357 4.0503 2.839921 29.779186 0.218274
2010-12-13 08:35:01 51°16.311 2°54.358 4.0537 2.838025 29.759677 0.218274
2010-12-13 08:35:06 51°16.312 2°54.359 4.0533 2.83813 29.759291 0.253098
2010-12-13 08:35:11 51°16.312 2°54.36 4.0557 2.840447 29.787681 0.253098
2010-12-13 08:35:16 51°16.313 2°54.362 4.0584 2.840131 29.784029 0.253098
2010-12-13 08:35:21 51°16.313 2°54.363 4.056 2.840131 29.784029 0.253098
2010-12-13 08:35:26 51°16.314 2°54.364 4.0561 2.839289 29.773486 0.218274
2010-12-13 08:35:31 51°16.315 2°54.365 4.0545 2.841079 29.798199 0.253098
2010-12-13 08:35:36 51°16.315 2°54.366 4.0561 2.838867 29.771824 0.253098
2010-12-13 08:35:41 51°16.316 2°54.366 4.0531 2.84308 29.817322 0.253098
2010-12-13 08:35:46 51°16.316 2°54.367 4.059 2.842869 29.816493 0.253098
2010-12-13 08:35:51 51°16.317 2°54.368 4.0565 2.842869 29.816493 0.253098
2010-12-13 08:35:56 51°16.317 2°54.368 4.052 2.842975 29.81771 0.253098
2010-12-13 08:36:01 51°16.317 2°54.368 4.0543 2.843396 29.820172 0.253098
2010-12-13 08:36:06 51°16.318 2°54.368 4.06 2.844344 29.832739 0.218274
2010-12-13 08:36:11 51°16.318 2°54.369 4.06 2.845291 29.843701 0.253098
2010-12-13 08:36:16 51°16.319 2°54.368 4.0577 2.843396 29.819368 0.218274
2010-12-13 08:36:21 51°16.319 2°54.368 4.0606 2.843396 29.819368 0.218274
2010-12-13 08:36:26 51°16.319 2°54.368 4.0526 2.845186 29.841679 0.218274
2010-12-13 08:36:31 51°16.319 2°54.367 4.0564 2.845186 29.842483 0.218274
2010-12-13 08:36:36 51°16.32 2°54.367 4.0535 2.84466 29.836393 0.218274
2010-12-13 08:36:41 51°16.32 2°54.366 4.0578 2.844133 29.831107 0.18345
2010-12-13 08:36:46 51°16.32 2°54.366 4.062 2.844765 29.837611 0.218274
2010-12-13 08:36:51 51°16.32 2°54.365 4.0685 2.844765 29.837611 0.218274
2010-12-13 08:36:56 51°16.32 2°54.365 4.075 2.84487 29.839633 0.218274
2010-12-13 08:37:01 51°16.32 2°54.363 4.0781 2.844344 29.832739 0.218274
2010-12-13 08:37:06 51°16.32 2°54.363 4.0867 2.844765 29.840827 0.218274
2010-12-13 08:37:11 51°16.32 2°54.362 4.0916 2.845923 29.854226 0.253098
2010-12-13 08:37:16 51°16.32 2°54.361 4.0949 2.846134 29.856662 0.253098
2010-12-13 08:37:21 51°16.32 2°54.36 4.0926 2.846134 29.856662 0.253098
2010-12-13 08:37:26 51°16.32 2°54.359 4.0972 2.846029 29.85464 0.253098
2010-12-13 08:37:31 51°16.32 2°54.358 4.1033 2.846555 29.857512 0.218274
2010-12-13 08:37:36 51°16.32 2°54.357 4.1046 2.846345 29.849447 0.253098
2010-12-13 08:37:41 51°16.32 2°54.356 4.11 2.845081 29.830817 0.253098
2010-12-13 08:37:46 51°16.32 2°54.355 4.1153 2.84645 29.841823 0.253098
2010-12-13 08:37:51 51°16.321 2°54.353 4.118 2.84645 29.841823 0.253098
2010-12-13 08:37:56 51°16.32 2°54.353 4.1178 2.847924 29.854848 0.253098
2010-12-13 08:38:01 51°16.321 2°54.352 4.1199 2.848661 29.860154 0.253098
2010-12-13 08:38:06 51°16.32 2°54.351 4.1273 2.849293 29.862635 0.253098
2010-12-13 08:38:11 51°16.321 2°54.349 4.1259 2.848451 29.849685 0.253098
2010-12-13 08:38:16 51°16.32 2°54.348 4.1292 2.848451 29.848078 0.253098
2010-12-13 08:38:21 51°16.321 2°54.347 4.1378 2.848451 29.848078 0.253098
2010-12-13 08:38:26 51°16.321 2°54.345 4.1374 2.847292 29.829074 0.253098
2010-12-13 08:38:31 51°16.321 2°54.344 4.1424 2.847819 29.833552 0.218274
2010-12-13 08:38:36 51°16.32 2°54.343 4.1458 2.850346 29.85793 0.253098
2010-12-13 08:38:41 51°16.32 2°54.341 4.148 2.850978 29.863622 0.253098
2010-12-13 08:38:46 51°16.32 2°54.34 4.1462 2.849504 29.844185 0.218274
2010-12-13 08:38:51 51°16.32 2°54.339 4.1512 2.849504 29.844185 0.218274
2010-12-13 08:38:56 51°16.32 2°54.337 4.1522 2.84845 29.828012 0.253098
2010-12-13 08:39:01 51°16.32 2°54.337 4.1573 2.850451 29.849512 0.253098
2010-12-13 08:39:06 51°16.32 2°54.335 4.1579 2.849293 29.830521 0.218274
2010-12-13 08:39:11 51°16.319 2°54.334 4.1593 2.853505 29.876747 0.253098
2010-12-13 08:39:16 51°16.319 2°54.333 4.164 2.854348 29.885672 0.253098
2010-12-13 08:39:21 51°16.319 2°54.331 4.1631 2.854348 29.885672 0.253098
2010-12-13 08:39:26 51°16.318 2°54.33 4.1667 2.856875 29.910032 0.253098
2010-12-13 08:39:31 51°16.318 2°54.328 4.1694 2.857191 29.908857 0.218274
2010-12-13 08:39:36 51°16.318 2°54.328 4.1729 2.85856 29.926271 0.218274
2010-12-13 08:39:41 51°16.318 2°54.326 4.1708 2.856665 29.898761 0.253098
2010-12-13 08:39:46 51°16.317 2°54.325 4.1673 2.858139 29.914976 0.218274
2010-12-13 08:39:51 51°16.317 2°54.323 4.1703 2.858139 29.914976 0.218274
2010-12-13 08:39:56 51°16.317 2°54.322 4.1699 2.857612 29.904881 0.253098
2010-12-13 08:40:01 51°16.316 2°54.321 4.1708 2.858034 29.910546 0.253098
2010-12-13 08:40:06 51°16.316 2°54.319 4.1713 2.858771 29.914233 0.253098
2010-12-13 08:40:11 51°16.315 2°54.318 4.1721 2.858455 29.909783 0.253098
2010-12-13 08:40:16 51°16.315 2°54.317 4.1732 2.859403 29.919114 0.253098
2010-12-13 08:40:21 51°16.314 2°54.315 4.1753 2.859403 29.919114 0.253098
2010-12-13 08:40:26 51°16.314 2°54.314 4.1753 2.857823 29.900083 0.253098
2010-12-13 08:40:31 51°16.313 2°54.312 4.1742 2.85677 29.887129 0.253098
2010-12-13 08:40:36 51°16.313 2°54.311 4.1785 2.857086 29.891577 0.287922
2010-12-13 08:40:41 51°16.313 2°54.309 4.1746 2.857718 29.898065 0.253098
2010-12-13 08:40:46 51°16.312 2°54.309 4.1788 2.859719 29.919545 0.253098
2010-12-13 08:40:51 51°16.311 2°54.307 4.177 2.859719 29.919545 0.253098
2010-12-13 08:40:56 51°16.311 2°54.306 4.1746 2.858876 29.909824 0.218274
2010-12-13 08:41:01 51°16.31 2°54.304 4.1735 2.860666 29.928874 0.253098
2010-12-13 08:41:06 51°16.309 2°54.303 4.1743 2.861193 29.934146 0.253098
2010-12-13 08:41:11 51°16.309 2°54.301 4.17 2.861193 29.933343 0.218274
2010-12-13 08:41:16 51°16.308 2°54.3 4.1641 2.861404 29.935773 0.253098
2010-12-13 08:41:21 51°16.308 2°54.298 4.1663 2.861404 29.935773 0.253098
2010-12-13 08:41:26 51°16.307 2°54.297 4.1663 2.860772 29.929286 0.253098
2010-12-13 08:41:31 51°16.306 2°54.296 4.1668 2.860982 29.931716 0.253098
2010-12-13 08:41:36 51°16.305 2°54.294 4.1648 2.86014 29.920389 0.253098
2010-12-13 08:41:41 51°16.305 2°54.293 4.1606 2.860982 29.93252 0.253098
2010-12-13 08:41:46 51°16.304 2°54.292 4.1613 2.861509 29.941008 0.253098
2010-12-13 08:41:51 51°16.303 2°54.29 4.1593 2.861509 29.941008 0.253098
2010-12-13 08:41:56 51°16.302 2°54.289 4.1634 2.859929 29.921976 0.218274
2010-12-13 08:42:01 51°16.302 2°54.287 4.1662 2.859824 29.925582 0.253098
2010-12-13 08:42:06 51°16.301 2°54.286 4.1581 2.85835 29.907765 0.253098
2010-12-13 08:42:11 51°16.3 2°54.284 4.1553 2.858139 29.907744 0.253098
2010-12-13 08:42:16 51°16.299 2°54.282 4.1529 2.859719 29.927582 0.253098
2010-12-13 08:42:21 51°16.298 2°54.281 4.1534 2.859719 29.927582 0.253098
2010-12-13 08:42:26 51°16.298 2°54.279 4.1509 2.85835 29.914192 0.253098
2010-12-13 08:42:31 51°16.297 2°54.278 4.1515 2.857507 29.904469 0.218274
2010-12-13 08:42:36 51°16.296 2°54.276 4.1487 2.856138 29.890274 0.253098
2010-12-13 08:42:41 51°16.295 2°54.275 4.1477 2.85856 29.917427 0.253098
2010-12-13 08:42:46 51°16.294 2°54.273 4.1475 2.858666 29.92025 0.253098
2010-12-13 08:42:51 51°16.294 2°54.271 4.1479 2.858666 29.92025 0.253098
2010-12-13 08:42:56 51°16.292 2°54.27 4.1423 2.855927 29.890253 0.253098
2010-12-13 08:43:01 51°16.292 2°54.268 4.144 2.857402 29.910485 0.253098
2010-12-13 08:43:06 51°16.291 2°54.267 4.1349 2.85856 29.924662 0.253098
2010-12-13 08:43:11 51°16.29 2°54.265 4.1401 2.852979 29.861838 0.253098
2010-12-13 08:43:16 51°16.289 2°54.264 4.1353 2.851715 29.847251 0.218274
2010-12-13 08:43:21 51°16.288 2°54.262 4.1386 2.851715 29.847251 0.218274
2010-12-13 08:43:26 51°16.287 2°54.26 4.1373 2.844448 29.765 0.253098
2010-12-13 08:43:31 51°16.287 2°54.258 4.1391 2.84845 29.811979 0.253098
2010-12-13 08:43:36 51°16.286 2°54.257 4.1358 2.845501 29.782754 0.253098
2010-12-13 08:43:41 51°16.285 2°54.255 4.1375 2.854769 29.889732 0.253098
2010-12-13 08:43:46 51°16.284 2°54.253 4.1328 2.857507 29.921349 0.253098
2010-12-13 08:43:51 51°16.283 2°54.252 4.1308 2.857507 29.921349 0.253098
2010-12-13 08:43:56 51°16.282 2°54.25 4.1351 2.856981 29.920094 0.253098
2010-12-13 08:44:01 51°16.281 2°54.248 4.1302 2.856559 29.916033 0.218274
2010-12-13 08:44:06 51°16.281 2°54.246 4.1332 2.856875 29.920487 0.218274
2010-12-13 08:44:11 51°16.279 2°54.244 4.1309 2.85677 29.920075 0.218274
2010-12-13 08:44:16 51°16.279 2°54.242 4.1332 2.85656 29.916838 0.218274
2010-12-13 08:44:21 51°16.278 2°54.241 4.1287 2.85656 29.916838 0.218274
2010-12-13 08:44:26 51°16.277 2°54.239 4.1272 2.855822 29.91154 0.218274
2010-12-13 08:44:31 51°16.276 2°54.237 4.1266 2.856665 29.921272 0.253098
2010-12-13 08:44:36 51°16.275 2°54.236 4.1333 2.856033 29.914778 0.218274
2010-12-13 08:44:41 51°16.274 2°54.234 4.1263 2.855928 29.914365 0.253098
2010-12-13 08:44:46 51°16.273 2°54.232 4.1276 2.855928 29.914365 0.218274
2010-12-13 08:44:51 51°16.272 2°54.231 4.1182 2.855928 29.914365 0.218274
2010-12-13 08:44:56 51°16.271 2°54.228 4.115 2.856033 29.917191 0.253098
2010-12-13 08:45:01 51°16.27 2°54.227 4.1169 2.855717 29.915955 0.253098
2010-12-13 08:45:06 51°16.269 2°54.225 4.115 2.855822 29.917976 0.253098
2010-12-13 08:45:11 51°16.268 2°54.223 4.1185 2.855717 29.91676 0.253098
2010-12-13 08:45:16 51°16.268 2°54.221 4.1142 2.854453 29.899747 0.218274
2010-12-13 08:45:21 51°16.266 2°54.22 4.1132 2.854453 29.899747 0.218274
2010-12-13 08:45:26 51°16.266 2°54.217 4.1131 2.854875 29.907831 0.253098
2010-12-13 08:45:31 51°16.265 2°54.216 4.1161 2.855401 29.914719 0.218274
2010-12-13 08:45:36 51°16.264 2°54.213 4.1096 2.854137 29.90414 0.218274
2010-12-13 08:45:41 51°16.263 2°54.212 4.1098 2.853927 29.906534 0.218274
2010-12-13 08:45:46 51°16.262 2°54.209 4.1125 2.853611 29.903688 0.218274
2010-12-13 08:45:51 51°16.261 2°54.208 4.1077 2.853611 29.903688 0.218274
2010-12-13 08:45:56 51°16.26 2°54.206 4.1061 2.853716 29.9041 0.218274
2010-12-13 08:46:01 51°16.259 2°54.204 4.1054 2.853506 29.90408 0.253098
2010-12-13 08:46:07 51°16.258 2°54.202 4.1081 2.853506 29.904884 0.253098
2010-12-13 08:46:11 51°16.258 2°54.201 4.1188 2.853506 29.904884 0.218274
2010-12-13 08:46:16 51°16.257 2°54.199 4.1326 2.852768 29.897169 0.218274
2010-12-13 08:46:21 51°16.256 2°54.197 4.1362 2.852768 29.897169 0.218274
2010-12-13 08:46:27 51°16.255 2°54.194 4.1379 2.8534 29.906082 0.218274
2010-12-13 08:46:31 51°16.254 2°54.193 4.1331 2.851821 29.888629 0.218274
2010-12-13 08:46:35 51°16.253 2°54.191 4.1403 2.853611 29.908516 0.253098
2010-12-13 08:46:41 51°16.252 2°54.189 4.1345 2.853084 29.898407 0.287922
2010-12-13 08:46:46 51°16.251 2°54.187 4.1474 2.8534 29.901254 0.253098
2010-12-13 08:46:51 51°16.25 2°54.186 4.1479 2.8534 29.901254 0.253098
2010-12-13 08:46:56 51°16.249 2°54.184 4.1438 2.853611 29.898861 0.253098
2010-12-13 08:47:01 51°16.248 2°54.182 4.1709 2.853611 29.891623 0.218274
2010-12-13 08:47:06 51°16.247 2°54.18 4.1667 2.853295 29.882348 0.253098
2010-12-13 08:47:11 51°16.246 2°54.178 4.1692 2.852873 29.872664 0.218274
2010-12-13 08:47:16 51°16.245 2°54.176 4.1516 2.852873 29.870255 0.218274
2010-12-13 08:47:21 51°16.244 2°54.174 4.1465 2.852873 29.870255 0.218274
2010-12-13 08:47:26 51°16.243 2°54.172 4.1402 2.853189 29.872296 0.253098
2010-12-13 08:47:31 51°16.242 2°54.17 4.1297 2.853084 29.867869 0.218274
2010-12-13 08:47:36 51°16.241 2°54.168 4.1281 2.85182 29.848467 0.253098
2010-12-13 08:47:41 51°16.24 2°54.167 4.1363 2.851399 29.839596 0.253098
2010-12-13 08:47:46 51°16.239 2°54.164 4.1412 2.851188 29.830753 0.218274
2010-12-13 08:47:51 51°16.238 2°54.163 4.1448 2.851188 29.830753 0.218274
2010-12-13 08:47:56 51°16.237 2°54.161 4.1434 2.851609 29.83401 0.218274
2010-12-13 08:48:01 51°16.236 2°54.159 4.1393 2.852452 29.844532 0.253098
2010-12-13 08:48:06 51°16.235 2°54.157 4.1498 2.851399 29.836389 0.218274
2010-12-13 08:48:11 51°16.234 2°54.156 4.1281 2.850978 29.836338 0.218274
2010-12-13 08:48:16 51°16.233 2°54.153 4.1237 2.849819 29.829382 0.218274
2010-12-13 08:48:21 51°16.232 2°54.152 4.1045 2.849819 29.829382 0.218274
2010-12-13 08:48:26 51°16.231 2°54.15 4.1021 2.849609 29.828555 0.218274
2010-12-13 08:48:31 51°16.23 2°54.148 4.116 2.849293 29.82571 0.218274
2010-12-13 08:48:36 51°16.229 2°54.146 4.1065 2.850346 29.83546 0.218274
2010-12-13 08:48:41 51°16.228 2°54.144 4.1356 2.850872 29.843944 0.218274
2010-12-13 08:48:46 51°16.227 2°54.143 4.1153 2.850662 29.842315 0.253098
2010-12-13 08:48:51 51°16.227 2°54.14 4.1377 2.850662 29.842315 0.253098
2010-12-13 08:48:56 51°16.225 2°54.14 4.1433 2.849925 29.836211 0.218274
2010-12-13 08:49:01 51°16.225 2°54.137 4.1637 2.849714 29.836988 0.218274
2010-12-13 08:49:06 51°16.224 2°54.136 4.1664 2.849188 29.840536 0.218274
2010-12-13 08:49:11 51°16.223 2°54.134 4.1657 2.84845 29.83443 0.218274
2010-12-13 08:49:16 51°16.222 2°54.133 4.1661 2.84845 29.836837 0.218274
2010-12-13 08:49:21 51°16.221 2°54.131 4.1474 2.84845 29.836837 0.218274
2010-12-13 08:49:26 51°16.22 2°54.13 4.1396 2.848766 29.837276 0.218274
2010-12-13 08:49:31 51°16.219 2°54.129 4.1575 2.849188 29.837326 0.218274
2010-12-13 08:49:35 51°16.218 2°54.127 4.1528 2.849503 29.836161 0.218274
2010-12-13 08:49:41 51°16.217 2°54.126 4.1295 2.851294 29.849609 0.218274
2010-12-13 08:49:46 51°16.216 2°54.125 4.1234 2.852768 29.858604 0.218274
2010-12-13 08:49:51 51°16.215 2°54.123 4.1108 2.852768 29.858604 0.218274
2010-12-13 08:49:56 51°16.214 2°54.122 4.0995 2.853926 29.865555 0.218274
2010-12-13 08:50:01 51°16.213 2°54.121 4.1087 2.854348 29.869613 0.253098
2010-12-13 08:50:06 51°16.212 2°54.12 4.0982 2.853821 29.866746 0.218274
2010-12-13 08:50:11 51°16.211 2°54.118 4.1089 2.853295 29.861472 0.218274
2010-12-13 08:50:16 51°16.21 2°54.117 4.1136 2.853084 29.860646 0.218274
2010-12-13 08:50:21 51°16.21 2°54.116 4.1094 2.853084 29.860646 0.218274
2010-12-13 08:50:26 51°16.209 2°54.114 4.1309 2.852031 29.854107 0.218274
2010-12-13 08:50:31 51°16.208 2°54.113 4.1141 2.850241 29.840661 0.218274
2010-12-13 08:50:35 51°16.207 2°54.112 4.1471 2.849819 29.844623 0.18345
2010-12-13 08:50:41 51°16.206 2°54.111 4.1073 2.848872 29.838492 0.218274
2010-12-13 08:50:47 51°16.205 2°54.108 4.1249 2.847924 29.830756 0.218274
2010-12-13 08:50:51 51°16.204 2°54.107 4.1111 2.847924 29.830756 0.218274
2010-12-13 08:50:56 51°16.204 2°54.106 4.1255 2.847503 29.82589 0.218274
2010-12-13 08:51:01 51°16.203 2°54.104 4.1329 2.847503 29.82589 0.218274
2010-12-13 08:51:06 51°16.202 2°54.103 4.1169 2.847924 29.829953 0.218274
2010-12-13 08:51:11 51°16.202 2°54.101 4.1505 2.848345 29.835621 0.218274
2010-12-13 08:51:16 51°16.201 2°54.1 4.142 2.84824 29.830393 0.218274
2010-12-13 08:51:21 51°16.2 2°54.099 4.1565 2.84824 29.830393 0.218274
2010-12-13 08:51:26 51°16.199 2°54.097 4.1671 2.848661 29.836862 0.253098
2010-12-13 08:51:31 51°16.199 2°54.095 4.1531 2.848661 29.835257 0.218274
2010-12-13 08:51:36 51°16.198 2°54.094 4.1635 2.849188 29.841339 0.218274
2010-12-13 08:51:41 51°16.197 2°54.093 4.1552 2.848872 29.836085 0.253098
2010-12-13 08:51:46 51°16.196 2°54.091 4.1535 2.849819 29.846228 0.253098
2010-12-13 08:51:51 51°16.195 2°54.09 4.1533 2.849819 29.846228 0.253098
2010-12-13 08:51:56 51°16.195 2°54.088 4.1478 2.850978 29.853987 0.218274
2010-12-13 08:52:01 51°16.194 2°54.087 4.1527 2.852347 29.862569 0.253098
2010-12-13 08:52:06 51°16.193 2°54.085 4.1505 2.853084 29.864658 0.253098
2010-12-13 08:52:11 51°16.192 2°54.084 4.142 2.853821 29.869154 0.253098
2010-12-13 08:52:16 51°16.192 2°54.082 4.1404 2.85519 29.881744 0.253098
2010-12-13 08:52:21 51°16.191 2°54.081 4.1458 2.85519 29.881744 0.253098
2010-12-13 08:52:26 51°16.19 2°54.079 4.1548 2.855506 29.885391 0.218274
2010-12-13 08:52:31 51°16.189 2°54.077 4.1501 2.855927 29.888647 0.218274
2010-12-13 08:52:36 51°16.188 2°54.076 4.1449 2.855927 29.893465 0.253098
2010-12-13 08:52:41 51°16.188 2°54.074 4.144 2.855401 29.886584 0.218274
2010-12-13 08:52:46 51°16.187 2°54.073 4.1352 2.855401 29.888994 0.218274
2010-12-13 08:52:51 51°16.186 2°54.072 4.1441 2.855401 29.888994 0.218274
2010-12-13 08:52:56 51°16.185 2°54.07 4.1512 2.855401 29.891403 0.253098
2010-12-13 08:53:01 51°16.185 2°54.068 4.1531 2.85519 29.888972 0.253098
2010-12-13 08:53:06 51°16.184 2°54.066 4.1431 2.854558 29.882481 0.253098
2010-12-13 08:53:11 51°16.183 2°54.065 4.1358 2.854348 29.879246 0.218274
2010-12-13 08:53:16 51°16.183 2°54.063 4.1375 2.854769 29.884912 0.253098
2010-12-13 08:53:21 51°16.182 2°54.062 4.1393 2.854769 29.884912 0.253098
2010-12-13 08:53:26 51°16.181 2°54.06 4.1532 2.854558 29.883284 0.253098
2010-12-13 08:53:31 51°16.18 2°54.059 4.1465 2.85498 29.88895 0.253098
2010-12-13 08:53:36 51°16.179 2°54.057 4.1306 2.854664 29.8845 0.218274
2010-12-13 08:53:41 51°16.179 2°54.055 4.118 2.854348 29.878443 0.253098
2010-12-13 08:53:46 51°16.178 2°54.054 4.1285 2.855717 29.895854 0.253098
2010-12-13 08:53:51 51°16.177 2°54.053 4.1243 2.855717 29.895854 0.253098
2010-12-13 08:53:56 51°16.177 2°54.051 4.1301 2.854137 29.88083 0.253098
2010-12-13 08:54:01 51°16.176 2°54.05 4.1175 2.853716 29.878376 0.253098
2010-12-13 08:54:06 51°16.175 2°54.047 4.1138 2.850557 29.840297 0.253098
2010-12-13 08:54:11 51°16.174 2°54.047 4.1216 2.854453 29.884478 0.253098
2010-12-13 08:54:16 51°16.174 2°54.045 4.1071 2.854348 29.887278 0.218274
2010-12-13 08:54:21 51°16.174 2°54.044 4.0986 2.854348 29.887278 0.218274
2010-12-13 08:54:26 51°16.175 2°54.044 4.0994 2.853084 29.878309 0.218274
2010-12-13 08:54:31 51°16.176 2°54.044 4.1066 2.852242 29.870186 0.253098
2010-12-13 08:54:36 51°16.177 2°54.044 4.0978 2.852558 29.876245 0.218274
2010-12-13 08:54:41 51°16.179 2°54.046 4.0963 2.851504 29.864885 0.253098
2010-12-13 08:54:46 51°16.181 2°54.046 4.0845 2.851505 29.868098 0.218274
2010-12-13 08:54:51 51°16.183 2°54.049 4.0964 2.851505 29.868098 0.218274
2010-12-13 08:54:56 51°16.187 2°54.05 4.094 2.850135 29.8563 0.253098
2010-12-13 08:55:01 51°16.189 2°54.054 4.0981 2.850136 29.861923 0.287922
2010-12-13 08:55:06 51°16.192 2°54.057 4.1068 2.848451 29.846472 0.253098
2010-12-13 08:55:11 51°16.195 2°54.062 4.1082 2.848556 29.848492 0.253098
2010-12-13 08:55:16 51°16.199 2°54.067 4.1097 2.848451 29.848078 0.253098
2010-12-13 08:55:21 51°16.202 2°54.073 4.1168 2.848451 29.848078 0.253098
2010-12-13 08:55:26 51°16.206 2°54.079 4.1191 2.847713 29.842773 0.218274
2010-12-13 08:55:31 51°16.209 2°54.086 4.1216 2.847187 29.8399 0.218274
2010-12-13 08:55:35 51°16.212 2°54.091 4.1188 2.846555 29.832598 0.253098
2010-12-13 08:55:41 51°16.216 2°54.101 4.1114 2.846239 29.82975 0.253098
2010-12-13 08:55:47 51°16.222 2°54.112 4.0959 2.847608 29.842359 0.253098
2010-12-13 08:55:51 51°16.225 2°54.119 4.0821 2.847608 29.842359 0.253098
2010-12-13 08:55:56 51°16.23 2°54.129 4.0779 2.84824 29.844841 0.253098
2010-12-13 08:56:01 51°16.235 2°54.14 4.0853 2.848872 29.849732 0.253098
2010-12-13 08:56:06 51°16.239 2°54.151 4.0794 2.849925 29.857883 0.218274
2010-12-13 08:56:11 51°16.245 2°54.163 4.0759 2.850346 29.861143 0.218274
2010-12-13 08:56:16 51°16.249 2°54.176 4.0799 2.851083 29.868856 0.218274
2010-12-13 08:56:21 51°16.254 2°54.188 4.0793 2.851083 29.868856 0.218274
2010-12-13 08:56:26 51°16.257 2°54.203 4.0702 2.851189 29.872483 0.218274
2010-12-13 08:56:31 51°16.261 2°54.217 4.06 2.850241 29.868765 0.253098
2010-12-13 08:56:36 51°16.263 2°54.232 4.0449 2.848977 29.863002 0.218274
2010-12-13 08:56:41 51°16.266 2°54.246 4.0362 2.84824 29.8585 0.218274
2010-12-13 08:56:46 51°16.267 2°54.26 4.039 2.847714 29.857237 0.218274
2010-12-13 08:56:51 51°16.269 2°54.272 4.0287 2.847714 29.857237 0.218274
2010-12-13 08:56:56 51°16.269 2°54.284 4.0333 2.847082 29.852343 0.218274
2010-12-13 08:57:01 51°16.27 2°54.295 4.0256 2.846976 29.850322 0.218274
2010-12-13 08:57:06 51°16.27 2°54.306 4.0255 2.847292 29.855583 0.218274
2010-12-13 08:57:11 51°16.27 2°54.316 4.0193 2.847082 29.85958 0.218274
2010-12-13 08:57:16 51°16.269 2°54.325 4.0093 2.845923 29.853421 0.253098
2010-12-13 08:57:21 51°16.268 2°54.333 4.0081 2.845923 29.853421 0.253098
2010-12-13 08:57:26 51°16.267 2°54.34 4.0051 2.844554 29.846433 0.253098
2010-12-13 08:57:31 51°16.266 2°54.346 4.001 2.843817 29.843535 0.218274
2010-12-13 08:57:36 51°16.265 2°54.352 4.0029 2.843291 29.842269 0.218274
2010-12-13 08:57:41 51°16.264 2°54.357 4.0005 2.842027 29.83247 0.218274
2010-12-13 08:57:46 51°16.263 2°54.362 3.9965 2.842027 29.838103 0.218274
2010-12-13 08:57:51 51°16.262 2°54.366 3.994 2.842027 29.838103 0.218274
2010-12-13 08:57:56 51°16.26 2°54.37 3.9975 2.841922 29.840103 0.218274
2010-12-13 08:58:01 51°16.259 2°54.374 3.9957 2.841817 29.84452 0.253098
2010-12-13 08:58:06 51°16.258 2°54.377 3.9927 2.840342 29.832278 0.218274
2010-12-13 08:58:11 51°16.257 2°54.38 3.9912 2.840237 29.835889 0.218274
2010-12-13 08:58:16 51°16.256 2°54.382 3.9912 2.839816 29.835842 0.253098
2010-12-13 08:58:21 51°16.255 2°54.383 3.9888 2.839816 29.835842 0.253098
2010-12-13 08:58:26 51°16.254 2°54.385 3.9892 2.839711 29.837038 0.218274
2010-12-13 08:58:31 51°16.253 2°54.387 3.9878 2.839816 29.839869 0.218274
2010-12-13 08:58:35 51°16.253 2°54.388 3.9873 2.839289 29.83538 0.218274
2010-12-13 08:58:41 51°16.251 2°54.389 3.9898 2.838236 29.825595 0.218274
2010-12-13 08:58:46 51°16.251 2°54.39 3.9901 2.837604 29.819885 0.253098
2010-12-13 08:58:51 51°16.25 2°54.391 3.989 2.837604 29.819885 0.253098
2010-12-13 08:58:56 51°16.249 2°54.391 3.9865 2.83792 29.825156 0.218274
2010-12-13 08:59:01 51°16.248 2°54.392 3.9904 2.838342 29.830843 0.253098
2010-12-13 08:59:06 51°16.247 2°54.393 3.9878 2.836657 29.812929 0.253098
2010-12-13 08:59:11 51°16.246 2°54.393 3.9929 2.836973 29.817395 0.218274
2010-12-13 08:59:16 51°16.245 2°54.394 3.9921 2.836341 29.810879 0.218274
2010-12-13 08:59:21 51°16.244 2°54.394 3.9919 2.836341 29.810879 0.218274
2010-12-13 08:59:26 51°16.243 2°54.394 3.9914 2.836025 29.808828 0.253098
2010-12-13 08:59:31 51°16.242 2°54.394 3.9947 2.835919 29.807608 0.218274
2010-12-13 08:59:36 51°16.24 2°54.394 3.9996 2.834866 29.795404 0.218274
2010-12-13 08:59:41 51°16.239 2°54.394 4.0001 2.834235 29.788083 0.218274
2010-12-13 08:59:46 51°16.238 2°54.394 4.0002 2.834235 29.787278 0.218274
2010-12-13 08:59:51 51°16.237 2°54.394 3.9996 2.834235 29.787278 0.218274
2010-12-13 08:59:56 51°16.236 2°54.394 4.0032 2.834129 29.786863 0.253098
2010-12-13 09:00:01 51°16.235 2°54.394 4.0022 2.833708 29.781982 0.218274
2010-12-13 09:00:06 51°16.234 2°54.394 4.0035 2.833076 29.774661 0.253098
2010-12-13 09:00:11 51°16.233 2°54.393 4.0008 2.833919 29.782009 0.218274
2010-12-13 09:00:16 51°16.232 2°54.393 4.0034 2.833813 29.779985 0.218274
2010-12-13 09:00:21 51°16.231 2°54.392 4.0017 2.833813 29.779985 0.218274
2010-12-13 09:00:26 51°16.23 2°54.392 4.0063 2.833287 29.772276 0.218274
2010-12-13 09:00:31 51°16.229 2°54.392 4.0053 2.83455 29.786112 0.253098
2010-12-13 09:00:36 51°16.228 2°54.391 4.006 2.83455 29.785308 0.218274
2010-12-13 09:00:41 51°16.227 2°54.39 4.0051 2.834234 29.780843 0.218274
2010-12-13 09:00:46 51°16.226 2°54.39 4.0057 2.83434 29.780455 0.253098
2010-12-13 09:00:51 51°16.225 2°54.389 4.0042 2.83434 29.780455 0.253098
2010-12-13 09:00:56 51°16.224 2°54.389 4.0045 2.833708 29.773136 0.218274
2010-12-13 09:01:01 51°16.223 2°54.388 4.0051 2.833497 29.769088 0.218274
2010-12-13 09:01:06 51°16.222 2°54.387 4.0077 2.833181 29.765429 0.218274
2010-12-13 09:01:11 51°16.22 2°54.387 4.0059 2.833076 29.765013 0.218274
2010-12-13 09:01:15 51°16.22 2°54.386 4.004 2.833603 29.768701 0.218274
2010-12-13 09:01:21 51°16.218 2°54.385 4.0081 2.833603 29.768701 0.218274
2010-12-13 09:01:26 51°16.218 2°54.385 4.0092 2.832865 29.760163 0.218274
2010-12-13 09:01:31 51°16.216 2°54.384 4.0103 2.833392 29.765458 0.218274
2010-12-13 09:01:35 51°16.216 2°54.383 4.0133 2.833287 29.765845 0.218274
2010-12-13 09:01:41 51°16.215 2°54.383 4.0117 2.833392 29.763851 0.218274
2010-12-13 09:01:46 51°16.214 2°54.382 4.009 2.833181 29.763018 0.218274
2010-12-13 09:01:51 51°16.213 2°54.381 4.0161 2.833181 29.763018 0.218274
2010-12-13 09:01:56 51°16.212 2°54.38 4.0186 2.832549 29.755701 0.218274
2010-12-13 09:02:01 51°16.211 2°54.38 4.0169 2.832233 29.750435 0.18345
2010-12-13 09:02:06 51°16.21 2°54.379 4.0183 2.832549 29.755701 0.218274
2010-12-13 09:02:11 51°16.209 2°54.378 4.021 2.832023 29.748799 0.253098
2010-12-13 09:02:16 51°16.208 2°54.377 4.0179 2.832339 29.750049 0.218274
2010-12-13 09:02:21 51°16.207 2°54.376 4.0211 2.832339 29.750049 0.218274
2010-12-13 09:02:26 51°16.206 2°54.375 4.0191 2.832128 29.748413 0.253098
2010-12-13 09:02:31 51°16.206 2°54.374 4.0237 2.832444 29.749662 0.218274
2010-12-13 09:02:36 51°16.205 2°54.373 4.0274 2.832444 29.747253 0.218274
2010-12-13 09:02:41 51°16.204 2°54.372 4.0266 2.83276 29.748502 0.218274
2010-12-13 09:02:46 51°16.203 2°54.371 4.0245 2.832023 29.739165 0.218274
2010-12-13 09:02:51 51°16.202 2°54.371 4.0256 2.832023 29.739165 0.218274
2010-12-13 09:02:56 51°16.201 2°54.37 4.0271 2.832339 29.744428 0.218274
2010-12-13 09:03:01 51°16.2 2°54.369 4.033 2.832655 29.74648 0.218274
2010-12-13 09:03:06 51°16.2 2°54.369 4.032 2.832549 29.744458 0.218274
2010-12-13 09:03:11 51°16.199 2°54.368 4.0305 2.832655 29.745677 0.253098
2010-12-13 09:03:16 51°16.198 2°54.367 4.0318 2.832865 29.745707 0.253098
2010-12-13 09:03:21 51°16.198 2°54.367 4.0325 2.832865 29.745707 0.253098
2010-12-13 09:03:26 51°16.197 2°54.366 4.0328 2.832971 29.747729 0.218274
2010-12-13 09:03:31 51°16.196 2°54.365 4.0334 2.832444 29.740029 0.218274
2010-12-13 09:03:35 51°16.196 2°54.365 4.0337 2.833076 29.745737 0.218274
2010-12-13 09:03:41 51°16.195 2°54.364 4.0322 2.833286 29.747373 0.218274
2010-12-13 09:03:46 51°16.194 2°54.363 4.0329 2.833392 29.746986 0.218274
2010-12-13 09:03:51 51°16.193 2°54.362 4.0349 2.833392 29.746986 0.218274
2010-12-13 09:03:56 51°16.193 2°54.361 4.0333 2.83276 29.738069 0.218274
2010-12-13 09:04:01 51°16.192 2°54.36 4.0323 2.831601 29.723058 0.218274
2010-12-13 09:04:06 51°16.191 2°54.36 4.0365 2.832444 29.732808 0.218274
2010-12-13 09:04:11 51°16.191 2°54.358 4.0326 2.831917 29.72912 0.218274
2010-12-13 09:04:16 51°16.19 2°54.358 4.0353 2.831812 29.726298 0.218274
2010-12-13 09:04:21 51°16.189 2°54.356 4.0308 2.831812 29.726298 0.218274
2010-12-13 09:04:26 51°16.188 2°54.355 4.0332 2.832128 29.729152 0.18345
2010-12-13 09:04:31 51°16.188 2°54.354 4.0337 2.831917 29.727516 0.218274
2010-12-13 09:04:36 51°16.187 2°54.353 4.0334 2.831917 29.726714 0.253098
2010-12-13 09:04:41 51°16.186 2°54.352 4.0381 2.832549 29.73162 0.218274
2010-12-13 09:04:46 51°16.186 2°54.351 4.037 2.831075 29.716164 0.218274
2010-12-13 09:04:51 51°16.185 2°54.35 4.0392 2.831075 29.716164 0.218274
2010-12-13 09:04:56 51°16.184 2°54.349 4.0381 2.833286 29.74336 0.218274
2010-12-13 09:05:01 51°16.184 2°54.348 4.0404 2.831917 29.725912 0.218274
2010-12-13 09:05:06 51°16.183 2°54.347 4.0424 2.83118 29.718184 0.218274
2010-12-13 09:05:11 51°16.182 2°54.346 4.0443 2.832865 29.737683 0.218274
2010-12-13 09:05:16 51°16.182 2°54.345 4.0462 2.83297 29.737297 0.218274
2010-12-13 09:05:21 51°16.181 2°54.344 4.0428 2.83297 29.737297 0.218274
2010-12-13 09:05:26 51°16.181 2°54.343 4.044 2.832865 29.736078 0.218274
2010-12-13 09:05:31 51°16.18 2°54.342 4.047 2.83297 29.737297 0.218274
2010-12-13 09:05:36 51°16.179 2°54.341 4.0439 2.832549 29.730818 0.218274
2010-12-13 09:05:41 51°16.179 2°54.339 4.049 2.833076 29.736109 0.218274
2010-12-13 09:05:46 51°16.178 2°54.339 4.0474 2.833181 29.735724 0.218274
2010-12-13 09:05:51 51°16.177 2°54.337 4.0474 2.833181 29.735724 0.218274
2010-12-13 09:05:56 51°16.177 2°54.337 4.0483 2.833076 29.733703 0.218274
2010-12-13 09:06:01 51°16.176 2°54.335 4.0498 2.834129 29.744284 0.218274
2010-12-13 09:06:06 51°16.175 2°54.335 4.0479 2.833181 29.731714 0.218274
2010-12-13 09:06:11 51°16.175 2°54.333 4.0498 2.834339 29.745117 0.218274
2010-12-13 09:06:16 51°16.174 2°54.332 4.0482 2.834339 29.743512 0.218274
2010-12-13 09:06:21 51°16.174 2°54.331 4.048 2.834339 29.743512 0.218274
2010-12-13 09:06:26 51°16.173 2°54.33 4.0501 2.833918 29.739441 0.218274
2010-12-13 09:06:31 51°16.172 2°54.329 4.0486 2.834023 29.739055 0.218274
2010-12-13 09:06:36 51°16.172 2°54.328 4.0496 2.834445 29.744731 0.218274
2010-12-13 09:06:41 51°16.171 2°54.327 4.0497 2.834445 29.744731 0.218274
2010-12-13 09:06:46 51°16.171 2°54.326 4.0492 2.834129 29.739472 0.218274
2010-12-13 09:06:51 51°16.17 2°54.325 4.0475 2.834129 29.739472 0.218274
2010-12-13 09:06:56 51°16.169 2°54.323 4.0479 2.834655 29.743959 0.218274
2010-12-13 09:07:01 51°16.169 2°54.322 4.0487 2.834234 29.739086 0.253098
2010-12-13 09:07:06 51°16.168 2°54.321 4.0489 2.834445 29.742325 0.218274
2010-12-13 09:07:11 51°16.168 2°54.32 4.0486 2.834234 29.739086 0.218274
2010-12-13 09:07:16 51°16.167 2°54.319 4.0509 2.833707 29.731392 0.218274
2010-12-13 09:07:21 51°16.166 2°54.318 4.0522 2.833707 29.731392 0.218274
2010-12-13 09:07:26 51°16.166 2°54.316 4.0507 2.834234 29.739086 0.218274
2010-12-13 09:07:31 51°16.165 2°54.315 4.0499 2.833707 29.732193 0.218274
2010-12-13 09:07:35 51°16.165 2°54.314 4.053 2.833602 29.730975 0.218274
2010-12-13 09:07:41 51°16.164 2°54.313 4.0529 2.834023 29.73665 0.218274
2010-12-13 09:07:46 51°16.163 2°54.312 4.0531 2.833602 29.732579 0.218274
2010-12-13 09:07:51 51°16.163 2°54.31 4.0541 2.833602 29.732579 0.218274
2010-12-13 09:07:56 51°16.162 2°54.309 4.0541 2.833813 29.734213 0.253098
2010-12-13 09:08:01 51°16.161 2°54.308 4.0569 2.834129 29.73867 0.253098
2010-12-13 09:08:06 51°16.161 2°54.307 4.0554 2.833707 29.732995 0.218274
2010-12-13 09:08:11 51°16.16 2°54.305 4.0571 2.834445 29.740721 0.218274
2010-12-13 09:08:16 51°16.16 2°54.304 4.0587 2.833707 29.732193 0.218274
2010-12-13 09:08:21 51°16.159 2°54.303 4.0566 2.833707 29.732193 0.218274
2010-12-13 09:08:26 51°16.158 2°54.302 4.0559 2.833813 29.731808 0.253098
2010-12-13 09:08:31 51°16.158 2°54.3 4.0584 2.83455 29.740335 0.218274
2010-12-13 09:08:36 51°16.157 2°54.299 4.0573 2.83455 29.741137 0.218274
2010-12-13 09:08:41 51°16.156 2°54.298 4.0586 2.834234 29.734276 0.218274
2010-12-13 09:08:46 51°16.156 2°54.297 4.0574 2.834761 29.741168 0.18345
2010-12-13 09:08:51 51°16.155 2°54.295 4.0572 2.834761 29.741168 0.18345
2010-12-13 09:08:56 51°16.154 2°54.294 4.0593 2.834339 29.735494 0.253098
2010-12-13 09:09:01 51°16.154 2°54.293 4.0591 2.834655 29.739148 0.218274
2010-12-13 09:09:06 51°16.153 2°54.292 4.06 2.834761 29.741168 0.218274
2010-12-13 09:09:11 51°16.152 2°54.29 4.0597 2.834445 29.73591 0.253098
2010-12-13 09:09:16 51°16.152 2°54.289 4.062 2.834234 29.735077 0.218274
2010-12-13 09:09:21 51°16.151 2°54.288 4.0604 2.834234 29.735077 0.218274
2010-12-13 09:09:26 51°16.15 2°54.287 4.0625 2.834761 29.739564 0.218274
2010-12-13 09:09:31 51°16.149 2°54.285 4.0618 2.83455 29.738732 0.18345
2010-12-13 09:09:36 51°16.147 2°54.285 4.06 2.834339 29.734692 0.253098
2010-12-13 09:09:41 51°16.145 2°54.285 4.0597 2.834971 29.741199 0.218274
2010-12-13 09:09:46 51°16.143 2°54.286 4.0574 2.834655 29.736743 0.253098
2010-12-13 09:09:51 51°16.14 2°54.287 4.0589 2.834655 29.736743 0.253098
2010-12-13 09:09:56 51°16.137 2°54.289 4.0578 2.83476 29.737159 0.218274
2010-12-13 09:10:01 51°16.135 2°54.291 4.0534 2.834866 29.738377 0.218274
2010-12-13 09:10:06 51°16.132 2°54.295 4.0577 2.834445 29.733506 0.218274
2010-12-13 09:10:11 51°16.13 2°54.299 4.0584 2.834866 29.736774 0.218274
2010-12-13 09:10:16 51°16.128 2°54.304 4.0594 2.834655 29.734338 0.253098
2010-12-13 09:10:21 51°16.125 2°54.31 4.0589 2.834655 29.734338 0.253098
2010-12-13 09:10:26 51°16.125 2°54.316 4.0595 2.833918 29.728218 0.218274
2010-12-13 09:10:31 51°16.124 2°54.323 4.0623 2.834129 29.731455 0.218274
2010-12-13 09:10:36 51°16.124 2°54.33 4.0661 2.834339 29.735494 0.218274
2010-12-13 09:10:41 51°16.124 2°54.337 4.0704 2.833497 29.726551 0.253098
2010-12-13 09:10:46 51°16.125 2°54.345 4.0746 2.83455 29.73793 0.218274
2010-12-13 09:10:51 51°16.127 2°54.352 4.0769 2.83455 29.73793 0.218274
2010-12-13 09:10:56 51°16.13 2°54.359 4.0791 2.833286 29.726519 0.218274
2010-12-13 09:11:01 51°16.133 2°54.366 4.0817 2.833918 29.731423 0.218274
2010-12-13 09:11:06 51°16.137 2°54.371 4.0836 2.833707 29.729789 0.218274
2010-12-13 09:11:11 51°16.142 2°54.376 4.0828 2.833918 29.72982 0.218274
2010-12-13 09:11:16 51°16.147 2°54.381 4.0841 2.833391 29.720526 0.253098
2010-12-13 09:11:21 51°16.152 2°54.383 4.0857 2.833391 29.720526 0.253098
2010-12-13 09:11:26 51°16.158 2°54.385 4.0863 2.834445 29.7303 0.218274
2010-12-13 09:11:31 51°16.164 2°54.385 4.0854 2.834129 29.724243 0.218274
2010-12-13 09:11:36 51°16.17 2°54.384 4.0826 2.834971 29.731581 0.218274
2010-12-13 09:11:41 51°16.176 2°54.381 4.0836 2.835708 29.736899 0.218274
2010-12-13 09:11:46 51°16.181 2°54.377 4.0814 2.835708 29.736098 0.218274
2010-12-13 09:11:51 51°16.187 2°54.372 4.0776 2.835708 29.736098 0.218274
2010-12-13 09:11:56 51°16.192 2°54.366 4.076 2.835919 29.736129 0.218274
2010-12-13 09:12:01 51°16.198 2°54.359 4.0734 2.835497 29.728857 0.253098
2010-12-13 09:12:06 51°16.203 2°54.35 4.0702 2.836445 29.739012 0.218274
2010-12-13 09:12:11 51°16.209 2°54.339 4.0664 2.836445 29.739012 0.218274
2010-12-13 09:12:16 51°16.215 2°54.327 4.062 2.836761 29.742664 0.253098
2010-12-13 09:12:21 51°16.221 2°54.313 4.058 2.836761 29.742664 0.253098
2010-12-13 09:12:26 51°16.228 2°54.299 4.0562 2.835708 29.731292 0.218274
2010-12-13 09:12:31 51°16.236 2°54.285 4.0518 2.836656 29.743049 0.218274
2010-12-13 09:12:35 51°16.243 2°54.272 4.049 2.835919 29.736129 0.218274
2010-12-13 09:12:41 51°16.255 2°54.253 4.042 2.835076 29.729594 0.218274
2010-12-13 09:12:46 51°16.265 2°54.236 4.0432 2.835287 29.73283 0.218274
2010-12-13 09:12:51 51°16.276 2°54.22 4.0414 2.835287 29.73283 0.218274
2010-12-13 09:12:56 51°16.288 2°54.203 4.0519 2.834971 29.731581 0.218274
2010-12-13 09:13:01 51°16.3 2°54.185 4.0685 2.834971 29.736389 0.218274
2010-12-13 09:13:06 51°16.312 2°54.167 4.0669 2.834866 29.735171 0.218274
2010-12-13 09:13:11 51°16.325 2°54.148 4.0512 2.834023 29.727833 0.253098
2010-12-13 09:13:16 51°16.338 2°54.129 4.0529 2.834129 29.732256 0.218274
2010-12-13 09:13:21 51°16.351 2°54.11 4.0703 2.834129 29.732256 0.218274
2010-12-13 09:13:26 51°16.364 2°54.09 4.0811 2.834971 29.74601 0.218274
2010-12-13 09:13:31 51°16.377 2°54.069 4.1035 2.835182 29.75005 0.218274
2010-12-13 09:13:35 51°16.387 2°54.053 4.1004 2.837183 29.774002 0.218274
2010-12-13 09:13:41 51°16.403 2°54.028 4.0833 2.83971 29.798425 0.218274
2010-12-13 09:13:47 51°16.418 2°54.003 4.0544 2.842343 29.826475 0.218274
2010-12-13 09:13:51 51°16.429 2°53.986 4.0556 2.842343 29.826475 0.218274
2010-12-13 09:13:56 51°16.442 2°53.965 4.0564 2.844449 29.850846 0.253098
2010-12-13 09:14:01 51°16.455 2°53.944 4.0434 2.84466 29.854088 0.18345
2010-12-13 09:14:06 51°16.468 2°53.923 4.0374 2.846029 29.862686 0.253098
2010-12-13 09:14:11 51°16.481 2°53.902 4.0467 2.848556 29.881461 0.218274
2010-12-13 09:14:16 51°16.494 2°53.88 4.0567 2.851084 29.901032 0.218274
2010-12-13 09:14:21 51°16.507 2°53.859 4.0623 2.851084 29.901032 0.218274
2010-12-13 09:14:26 51°16.52 2°53.837 4.0691 2.852031 29.913605 0.18345
2010-12-13 09:14:31 51°16.532 2°53.815 4.0746 2.85161 29.919209 0.18345
2010-12-13 09:14:36 51°16.544 2°53.791 4.0774 2.851189 29.921591 0.218274
2010-12-13 09:14:41 51°16.556 2°53.769 4.0754 2.850873 29.921967 0.218274
2010-12-13 09:14:46 51°16.568 2°53.746 4.0819 2.849504 29.914185 0.18345
2010-12-13 09:14:51 51°16.58 2°53.723 4.088 2.849504 29.914185 0.18345
2010-12-13 09:14:56 51°16.591 2°53.7 4.0901 2.850136 29.922307 0.253098
2010-12-13 09:15:01 51°16.603 2°53.676 4.0969 2.850031 29.918667 0.18345
2010-12-13 09:15:06 51°16.615 2°53.653 4.0975 2.850136 29.915854 0.218274
2010-12-13 09:15:11 51°16.626 2°53.63 4.0992 2.851189 29.922397 0.218274
2010-12-13 09:15:16 51°16.638 2°53.607 4.1118 2.851926 29.926896 0.218274
2010-12-13 09:15:21 51°16.65 2°53.584 4.1188 2.851926 29.926896 0.218274
2010-12-13 09:15:26 51°16.662 2°53.561 4.1063 2.85161 29.921627 0.218274
2010-12-13 09:15:31 51°16.674 2°53.537 4.1001 2.852032 29.92247 0.18345
2010-12-13 09:15:36 51°16.686 2°53.515 4.0989 2.852137 29.919658 0.218274
2010-12-13 09:15:41 51°16.698 2°53.492 4.0989 2.851821 29.910363 0.218274
2010-12-13 09:15:46 51°16.709 2°53.468 4.1121 2.853295 29.924998 0.218274
2010-12-13 09:15:51 51°16.721 2°53.445 4.116 2.853295 29.924998 0.218274
2010-12-13 09:15:56 51°16.733 2°53.422 4.1205 2.852663 29.912051 0.218274
2010-12-13 09:16:01 51°16.745 2°53.398 4.1266 2.8534 29.914132 0.218274
2010-12-13 09:16:06 51°16.757 2°53.376 4.1328 2.854875 29.928761 0.218274
2010-12-13 09:16:11 51°16.768 2°53.353 4.1357 2.854875 29.929566 0.218274
2010-12-13 09:16:16 51°16.78 2°53.33 4.1352 2.855191 29.934831 0.218274
2010-12-13 09:16:21 51°16.791 2°53.306 4.1506 2.855191 29.934831 0.218274
2010-12-13 09:16:26 51°16.803 2°53.283 4.166 2.854559 29.926719 0.218274
2010-12-13 09:16:31 51°16.815 2°53.26 4.1804 2.85498 29.929173 0.18345
2010-12-13 09:16:36 51°16.827 2°53.237 4.1877 2.856033 29.936513 0.218274
2010-12-13 09:16:41 51°16.839 2°53.215 4.1766 2.856876 29.942223 0.218274
2010-12-13 09:16:46 51°16.85 2°53.191 4.1654 2.858034 29.949972 0.218274
2010-12-13 09:16:51 51°16.862 2°53.169 4.1571 2.858034 29.949972 0.218274
2010-12-13 09:16:56 51°16.873 2°53.146 4.1542 2.859298 29.961354 0.18345
2010-12-13 09:17:01 51°16.885 2°53.124 4.1553 2.858561 29.947196 0.18345
2010-12-13 09:17:06 51°16.896 2°53.102 4.1552 2.860561 29.963063 0.218274
2010-12-13 09:17:11 51°16.907 2°53.08 4.1624 2.8633 29.98341 0.18345
2010-12-13 09:17:16 51°16.919 2°53.058 4.1652 2.865511 30.000084 0.218274
2010-12-13 09:17:21 51°16.93 2°53.035 4.1703 2.865511 30.000084 0.218274
2010-12-13 09:17:26 51°16.942 2°53.014 4.175 2.864774 29.985127 0.18345
2010-12-13 09:17:31 51°16.953 2°52.991 4.1782 2.865195 29.994019 0.218274
2010-12-13 09:17:36 51°16.965 2°52.969 4.1796 2.863826 29.982239 0.18345
2010-12-13 09:17:41 51°16.977 2°52.947 4.1795 2.862878 29.974517 0.18345